M I D A S
Marine Information and Data Acquisition System
Tripno 1494 of the Zeeleeuw from 2008-05-28 06:27:09 to 2008-05-28 15:19:20
Back to CruiseResearch ActivitiesStationsMapUnderway DataData graphs

EquipmentUnitsComment
TimeDGPSUTC
LatitudeDGPSDM.mWGS84
LongitudeDGPSDM.mWGS84
TemperatureSBE03/SBE38deg celciusITS90
ConductivitySBE21S/mITS90
SalinitySBE21 Practical Salinity Units
ChlorophylAChelsea fluorimeterg/lCalibrated in Aceton
Missing or incorrect values are displayed as -999
Sea surface data collected by the RV Zeeleeuw from 2008-05-28 06:27:47 to 2008-05-28 15:23:53
                                                                                    Next 1000 lines
Time Latitude Longitude Temperature Conductivity Salinity ChlorophylA
2008-05-28 06:27:57 51°13.623 2°56.047 19.2523 0.010307 0.057115 -1.731873
2008-05-28 06:28:02 51°13.623 2°56.044 19.2764 0.010307 0.057115 -1.766697
2008-05-28 06:28:07 51°13.624 2°56.041 19.2772 0.010307 0.057115 -1.731873
2008-05-28 06:28:12 51°13.626 2°56.036 19.3056 0.010307 0.057115 -1.766697
2008-05-28 06:28:17 51°13.627 2°56.031 19.3058 0.010307 0.057115 -1.731873
2008-05-28 06:28:22 51°13.629 2°56.026 19.2847 0.010307 0.057115 -1.731873
2008-05-28 06:28:27 51°13.631 2°56.019 19.3058 0.010307 0.057115 -1.731873
2008-05-28 06:28:32 51°13.633 2°56.013 19.2888 0.010307 0.057115 -1.731873
2008-05-28 06:28:38 51°13.636 2°56.004 19.3013 0.010307 0.057116 -1.731873
2008-05-28 06:28:43 51°13.639 2°55.996 19.2997 0.010307 0.057116 -1.731873
2008-05-28 06:28:47 51°13.641 2°55.989 19.3033 0.010307 0.057116 -1.766697
2008-05-28 06:28:52 51°13.643 2°55.981 19.309 0.010307 0.057116 -1.766697
2008-05-28 06:28:58 51°13.646 2°55.97 19.3179 0.010307 0.057116 -1.731873
2008-05-28 06:29:03 51°13.649 2°55.961 19.313 0.010307 0.057116 -1.731873
2008-05-28 06:29:07 51°13.651 2°55.954 19.3131 0.010307 0.057116 -1.731873
2008-05-28 06:29:12 51°13.654 2°55.944 19.3112 0.010307 0.057116 -1.766697
2008-05-28 06:29:17 51°13.657 2°55.934 19.3227 0.010307 0.057116 -1.731873
2008-05-28 06:29:23 51°13.66 2°55.923 19.324 0.010307 0.057116 -1.731873
2008-05-28 06:29:27 51°13.662 2°55.915 19.3207 0.010307 0.057116 -1.731873
2008-05-28 06:29:32 51°13.665 2°55.905 19.322 0.010307 0.057117 -1.731873
2008-05-28 06:29:37 51°13.668 2°55.895 19.3219 0.010307 0.057118 -1.731873
2008-05-28 06:29:42 51°13.671 2°55.884 19.3238 0.010307 0.057118 -1.731873
2008-05-28 06:29:48 51°13.674 2°55.872 19.3159 0.010307 0.057118 -1.731873
2008-05-28 06:29:53 51°13.677 2°55.862 19.3163 0.010307 0.057118 -1.731873
2008-05-28 06:29:57 51°13.679 2°55.854 19.3247 0.010307 0.057118 -1.731873
2008-05-28 06:30:02 51°13.68 2°55.844 19.3307 0.010307 0.057118 -1.731873
2008-05-28 06:30:07 51°13.683 2°55.834 19.3264 0.010307 0.057118 -1.731873
2008-05-28 06:30:13 51°13.684 2°55.823 19.3316 0.010307 0.057118 -1.731873
2008-05-28 06:30:17 51°13.686 2°55.815 19.3286 0.010307 0.057118 -1.766697
2008-05-28 06:30:22 51°13.687 2°55.807 19.3281 0.010307 0.057118 -1.766697
2008-05-28 06:30:27 51°13.688 2°55.798 19.3305 0.010307 0.057118 -1.731873
2008-05-28 06:30:33 51°13.688 2°55.789 19.3294 0.010307 0.057118 -1.731873
2008-05-28 06:30:38 51°13.689 2°55.781 19.3289 0.010307 0.057119 -1.731873
2008-05-28 06:30:42 51°13.69 2°55.775 19.3294 0.010307 0.057118 -1.731873
2008-05-28 06:30:47 51°13.69 2°55.768 19.3253 0.010307 0.057119 -1.731873
2008-05-28 06:30:52 51°13.691 2°55.762 19.3181 0.010307 0.057119 -1.731873
2008-05-28 06:30:58 51°13.691 2°55.755 19.326 0.010307 0.057118 -1.731873
2008-05-28 06:31:02 51°13.691 2°55.751 19.3191 0.010307 0.057119 -1.731873
2008-05-28 06:31:07 51°13.691 2°55.746 19.3166 0.010307 0.057119 -1.731873
2008-05-28 06:31:12 51°13.691 2°55.742 19.3218 0.010307 0.057119 -1.731873
2008-05-28 06:31:17 51°13.691 2°55.739 19.3222 0.010307 0.057119 -1.731873
2008-05-28 06:31:22 51°13.69 2°55.736 19.3221 0.010307 0.057119 -1.731873
2008-05-28 06:31:27 51°13.69 2°55.734 19.3231 0.010307 0.057119 -1.766697
2008-05-28 06:31:32 51°13.69 2°55.732 19.3274 0.010307 0.057119 -1.731873
2008-05-28 06:31:37 51°13.691 2°55.73 19.3281 0.010307 0.057119 -1.766697
2008-05-28 06:31:42 51°13.692 2°55.729 19.3277 0.010307 0.057119 -1.731873
2008-05-28 06:31:47 51°13.692 2°55.729 19.3239 0.010204 0.0566 -1.766697
2008-05-28 06:31:52 51°13.693 2°55.729 19.3377 0.010204 0.0566 -1.766697
2008-05-28 06:31:57 51°13.694 2°55.729 19.3306 0.010307 0.057119 -1.731873
2008-05-28 06:32:02 51°13.696 2°55.729 19.3245 0.010307 0.057119 -1.731873
2008-05-28 06:32:07 51°13.697 2°55.729 19.3303 0.010307 0.057119 -1.731873
2008-05-28 06:32:12 51°13.699 2°55.73 19.3387 0.010307 0.057119 -1.731873
2008-05-28 06:32:17 51°13.701 2°55.73 19.3435 0.010307 0.057119 -1.766697
2008-05-28 06:32:22 51°13.704 2°55.73 19.3526 0.010307 0.057119 -1.766697
2008-05-28 06:32:27 51°13.707 2°55.73 19.362 0.010307 0.057119 -1.731873
2008-05-28 06:32:32 51°13.711 2°55.729 19.3633 0.010307 0.057119 -1.731873
2008-05-28 06:32:37 51°13.716 2°55.728 19.3555 0.010307 0.057119 -1.766697
2008-05-28 06:32:42 51°13.72 2°55.726 19.3404 0.010307 0.05712 -1.731873
2008-05-28 06:32:47 51°13.725 2°55.724 19.3325 0.010307 0.05712 -1.766697
2008-05-28 06:32:52 51°13.73 2°55.721 19.3541 0.010307 0.05712 -1.766697
2008-05-28 06:32:57 51°13.736 2°55.717 19.3571 0.010307 0.05712 -1.731873
2008-05-28 06:33:02 51°13.742 2°55.712 19.3409 0.010307 0.057119 -1.731873
2008-05-28 06:33:07 51°13.749 2°55.707 19.3321 0.010307 0.057119 -1.731873
2008-05-28 06:33:12 51°13.756 2°55.701 19.3163 0.010307 0.05712 -1.731873
2008-05-28 06:33:18 51°13.766 2°55.692 19.3204 0.010307 0.05712 -1.731873
2008-05-28 06:33:23 51°13.774 2°55.685 19.3083 0.010307 0.05712 -1.731873
2008-05-28 06:33:27 51°13.781 2°55.679 19.3158 0.010307 0.05712 -1.766697
2008-05-28 06:33:32 51°13.789 2°55.671 19.3097 0.010307 0.057119 -1.731873
2008-05-28 06:33:37 51°13.798 2°55.663 19.287 0.010307 0.05712 -1.731873
2008-05-28 06:33:43 51°13.809 2°55.654 19.3103 0.010307 0.05712 -1.731873
2008-05-28 06:33:47 51°13.817 2°55.648 19.3138 0.010307 0.05712 -1.766697
2008-05-28 06:33:52 51°13.826 2°55.64 19.3069 0.010307 0.05712 -1.766697
2008-05-28 06:33:57 51°13.836 2°55.633 19.2944 0.010307 0.05712 -1.731873
2008-05-28 06:34:02 51°13.847 2°55.626 19.2929 0.010307 0.05712 -1.766697
2008-05-28 06:34:07 51°13.858 2°55.619 19.3168 0.010307 0.05712 -1.731873
2008-05-28 06:34:12 51°13.868 2°55.612 19.3127 0.010307 0.05712 -1.731873
2008-05-28 06:34:17 51°13.879 2°55.604 19.3094 0.010307 0.05712 -1.766697
2008-05-28 06:34:22 51°13.89 2°55.597 19.3188 0.010307 0.05712 -1.766697
2008-05-28 06:34:27 51°13.9 2°55.59 19.3211 0.010307 0.05712 -1.731873
2008-05-28 06:34:32 51°13.911 2°55.582 19.3264 0.010307 0.05712 -1.731873
2008-05-28 06:34:37 51°13.922 2°55.574 19.3105 0.010307 0.05712 -1.731873
2008-05-28 06:34:42 51°13.933 2°55.567 19.3112 0.010307 0.05712 -1.766697
2008-05-28 06:34:47 51°13.944 2°55.559 19.3033 0.010307 0.05712 -1.731873
2008-05-28 06:34:52 51°13.955 2°55.552 19.3103 0.010307 0.05712 -1.731873
2008-05-28 06:34:57 51°13.966 2°55.544 19.302 0.010307 0.05712 -1.731873
2008-05-28 06:35:02 51°13.977 2°55.537 19.3105 0.010307 0.05712 -1.766697
2008-05-28 06:35:07 51°13.988 2°55.53 19.3125 0.010307 0.05712 -1.731873
2008-05-28 06:35:12 51°13.999 2°55.523 19.3226 0.010307 0.05712 -1.731873
2008-05-28 06:35:17 51°14.009 2°55.517 19.3184 0.010307 0.057121 -1.766697
2008-05-28 06:35:22 51°14.018 2°55.51 19.3184 0.010307 0.057121 -1.766697
2008-05-28 06:35:27 51°14.027 2°55.504 19.3288 0.010307 0.057121 -1.731873
2008-05-28 06:35:32 51°14.036 2°55.497 19.3356 0.010307 0.057121 -1.731873
2008-05-28 06:35:37 51°14.044 2°55.491 19.329 0.010307 0.057121 -1.766697
2008-05-28 06:35:42 51°14.053 2°55.485 19.3273 0.010307 0.057121 -1.766697
2008-05-28 06:35:47 51°14.061 2°55.478 19.3231 0.010307 0.057122 -1.731873
2008-05-28 06:35:52 51°14.069 2°55.472 19.3062 0.010307 0.057122 -1.731873
2008-05-28 06:35:57 51°14.076 2°55.467 19.3233 0.010307 0.057122 -1.766697
2008-05-28 06:36:03 51°14.085 2°55.46 19.3226 0.010307 0.057122 -1.731873
2008-05-28 06:36:07 51°14.091 2°55.455 19.3292 0.010307 0.057122 -1.766697
2008-05-28 06:36:12 51°14.098 2°55.449 19.3236 0.010307 0.057122 -1.731873
2008-05-28 06:36:17 51°14.106 2°55.444 19.3235 0.010307 0.057122 -1.731873
2008-05-28 06:36:23 51°14.114 2°55.438 19.3282 0.010307 0.057122 -1.731873
2008-05-28 06:36:27 51°14.12 2°55.433 19.3096 0.010307 0.057122 -1.731873
2008-05-28 06:36:32 51°14.127 2°55.428 19.3071 0.010307 0.057122 -1.766697
2008-05-28 06:36:37 51°14.134 2°55.423 19.3196 0.010307 0.057122 -1.766697
2008-05-28 06:36:42 51°14.141 2°55.418 19.327 0.010307 0.057122 -1.766697
2008-05-28 06:36:47 51°14.148 2°55.412 19.3169 0.010307 0.057122 -1.766697
2008-05-28 06:36:52 51°14.155 2°55.407 19.3114 0.010307 0.057122 -1.766697
2008-05-28 06:36:57 51°14.162 2°55.401 19.308 0.010307 0.057122 -1.731873
2008-05-28 06:37:02 51°14.169 2°55.396 19.3103 0.010307 0.057122 -1.731873
2008-05-28 06:37:07 51°14.176 2°55.39 19.3055 0.010307 0.057122 -1.731873
2008-05-28 06:37:12 51°14.183 2°55.385 19.3227 0.010307 0.057122 -1.731873
2008-05-28 06:37:18 51°14.191 2°55.378 19.3194 0.010307 0.057122 -1.731873
2008-05-28 06:37:22 51°14.196 2°55.374 19.3206 0.010307 0.057122 -1.731873
2008-05-28 06:37:27 51°14.204 2°55.368 19.3101 0.010307 0.057122 -1.731873
2008-05-28 06:37:32 51°14.211 2°55.362 19.3336 0.010307 0.057122 -1.731873
2008-05-28 06:37:37 51°14.218 2°55.356 19.3126 0.010307 0.057122 -1.766697
2008-05-28 06:37:42 51°14.224 2°55.349 19.3073 0.010307 0.057122 -1.731873
2008-05-28 06:37:47 51°14.231 2°55.341 19.3227 0.010307 0.057122 -1.731873
2008-05-28 06:37:52 51°14.237 2°55.332 19.3045 0.010307 0.057122 -1.731873
2008-05-28 06:37:57 51°14.244 2°55.324 19.3047 0.010307 0.057123 -1.766697
2008-05-28 06:38:02 51°14.249 2°55.314 19.3042 0.010307 0.057123 -1.766697
2008-05-28 06:38:07 51°14.256 2°55.305 19.3079 0.010307 0.057123 -1.731873
2008-05-28 06:38:12 51°14.262 2°55.294 19.2794 0.010307 0.057123 -1.731873
2008-05-28 06:38:17 51°14.267 2°55.284 19.3054 0.010307 0.057122 -1.766697
2008-05-28 06:38:23 51°14.275 2°55.27 19.2874 0.010307 0.057122 -1.766697
2008-05-28 06:38:27 51°14.279 2°55.261 19.2847 0.010307 0.057123 -1.766697
2008-05-28 06:38:32 51°14.285 2°55.248 19.2599 0.010307 0.057123 -1.731873
2008-05-28 06:38:37 51°14.291 2°55.235 19.2793 0.010307 0.057124 -1.731873
2008-05-28 06:38:43 51°14.299 2°55.219 19.2742 0.010307 0.057123 -1.731873
2008-05-28 06:38:47 51°14.303 2°55.208 19.2413 0.010307 0.057123 -1.731873
2008-05-28 06:38:52 51°14.31 2°55.193 19.2715 0.010307 0.057123 -1.731873
2008-05-28 06:38:57 51°14.316 2°55.178 19.276 0.010307 0.057123 -1.731873
2008-05-28 06:39:02 51°14.322 2°55.163 19.266 0.010307 0.057123 -1.766697
2008-05-28 06:39:08 51°14.33 2°55.143 19.27 0.010307 0.057123 -1.731873
2008-05-28 06:39:13 51°14.336 2°55.127 19.2667 0.010307 0.057123 -1.731873
2008-05-28 06:39:17 51°14.342 2°55.114 19.2621 0.010307 0.057123 -1.731873
2008-05-28 06:39:22 51°14.349 2°55.097 19.2613 0.010307 0.057123 -1.731873
2008-05-28 06:39:27 51°14.357 2°55.079 19.2077 0.010307 0.057123 -1.731873
2008-05-28 06:39:33 51°14.367 2°55.058 19.2185 0.010307 0.057123 -1.731873
2008-05-28 06:39:38 51°14.377 2°55.042 19.2087 0.010307 0.057123 -1.766697
2008-05-28 06:39:42 51°14.385 2°55.029 19.234 0.010307 0.057122 -1.731873
2008-05-28 06:39:47 51°14.396 2°55.013 19.2139 0.010307 0.057123 -1.731873
2008-05-28 06:39:52 51°14.408 2°54.998 19.1903 0.010307 0.057123 -1.731873
2008-05-28 06:39:58 51°14.424 2°54.981 19.203 0.010307 0.057123 -1.766697
2008-05-28 06:40:03 51°14.437 2°54.969 19.2257 0.010307 0.057123 -1.766697
2008-05-28 06:40:07 51°14.448 2°54.958 19.2204 0.010307 0.057123 -1.731873
2008-05-28 06:40:12 51°14.462 2°54.946 19.2257 0.010307 0.057123 -1.766697
2008-05-28 06:40:18 51°14.48 2°54.93 19.1808 0.010307 0.057123 -1.766697
2008-05-28 06:40:23 51°14.494 2°54.918 19.1645 0.010307 0.057123 -1.766697
2008-05-28 06:40:27 51°14.506 2°54.908 19.209 0.010307 0.057124 -1.766697
2008-05-28 06:40:32 51°14.521 2°54.895 19.1838 0.010307 0.057124 -1.731873
2008-05-28 06:40:37 51°14.536 2°54.881 19.2148 0.010307 0.057125 -1.731873
2008-05-28 06:40:43 51°14.554 2°54.864 19.2064 0.010307 0.057125 -1.731873
2008-05-28 06:40:47 51°14.566 2°54.854 19.2122 0.010307 0.057125 -1.766697
2008-05-28 06:40:52 51°14.58 2°54.84 19.1664 0.010307 0.057125 -1.766697
2008-05-28 06:40:57 51°14.595 2°54.825 19.1937 0.010307 0.057126 -1.731873
2008-05-28 06:41:03 51°14.613 2°54.808 19.2096 0.010307 0.057126 -1.766697
2008-05-28 06:41:07 51°14.625 2°54.796 19.1878 0.010307 0.057127 -1.766697
2008-05-28 06:41:12 51°14.64 2°54.781 19.1731 0.010307 0.057127 -1.731873
2008-05-28 06:41:17 51°14.655 2°54.766 19.1918 0.010307 0.057127 -1.731873
2008-05-28 06:41:22 51°14.67 2°54.752 19.1744 0.010307 0.057127 -1.731873
2008-05-28 06:41:27 51°14.685 2°54.738 19.1623 0.010307 0.057127 -1.766697
2008-05-28 06:41:32 51°14.7 2°54.725 19.1501 0.010307 0.057127 -1.731873
2008-05-28 06:41:37 51°14.716 2°54.712 19.19 0.010307 0.057127 -1.731873
2008-05-28 06:41:42 51°14.731 2°54.699 19.1594 0.010307 0.057127 -1.766697
2008-05-28 06:41:47 51°14.747 2°54.686 19.2052 0.010307 0.057127 -1.766697
2008-05-28 06:41:52 51°14.763 2°54.673 19.2035 0.010307 0.057127 -1.766697
2008-05-28 06:41:57 51°14.778 2°54.66 19.2007 0.010307 0.057127 -1.766697
2008-05-28 06:42:02 51°14.794 2°54.647 19.1982 0.010307 0.057127 -1.766697
2008-05-28 06:42:07 51°14.809 2°54.635 19.1759 0.010307 0.057127 -1.731873
2008-05-28 06:42:12 51°14.824 2°54.622 19.1884 0.010307 0.057127 -1.766697
2008-05-28 06:42:17 51°14.84 2°54.61 19.1827 0.010307 0.057127 -1.766697
2008-05-28 06:42:22 51°14.856 2°54.597 19.183 0.010307 0.057127 -1.766697
2008-05-28 06:42:27 51°14.871 2°54.585 19.1881 0.010307 0.057128 -1.731873
2008-05-28 06:42:32 51°14.887 2°54.573 19.1857 0.010307 0.057128 -1.766697
2008-05-28 06:42:37 51°14.903 2°54.561 19.1936 0.010307 0.057128 -1.766697
2008-05-28 06:42:42 51°14.919 2°54.549 19.1989 0.010307 0.057129 -1.731873
2008-05-28 06:42:47 51°14.934 2°54.537 19.1674 0.010307 0.057129 -1.731873
2008-05-28 06:42:52 51°14.95 2°54.524 19.1855 0.010307 0.057129 -1.731873
2008-05-28 06:42:57 51°14.965 2°54.511 19.196 0.010307 0.05713 -1.731873
2008-05-28 06:43:02 51°14.98 2°54.497 19.1669 0.010307 0.05713 -1.766697
2008-05-28 06:43:07 51°14.995 2°54.484 19.1987 0.010307 0.05713 -1.731873
2008-05-28 06:43:12 51°15.01 2°54.47 19.1502 0.010307 0.05713 -1.766697
2008-05-28 06:43:17 51°15.025 2°54.456 19.1695 0.010307 0.057131 -1.766697
2008-05-28 06:43:22 51°15.04 2°54.443 19.1684 0.010307 0.057131 -1.766697
2008-05-28 06:43:27 51°15.055 2°54.43 19.1667 0.010307 0.057131 -1.731873
2008-05-28 06:43:32 51°15.071 2°54.416 19.1797 0.010307 0.057131 -1.731873
2008-05-28 06:43:37 51°15.086 2°54.403 19.1944 0.010307 0.057131 -1.731873
2008-05-28 06:43:42 51°15.101 2°54.39 19.1862 0.010307 0.057131 -1.731873
2008-05-28 06:43:47 51°15.116 2°54.377 19.1975 0.010307 0.057131 -1.766697
2008-05-28 06:43:52 51°15.131 2°54.363 19.1863 0.010307 0.057131 -1.766697
2008-05-28 06:43:57 51°15.146 2°54.349 19.1921 0.010307 0.057132 -1.731873
2008-05-28 06:44:02 51°15.16 2°54.335 19.1857 0.010307 0.057132 -1.731873
2008-05-28 06:44:07 51°15.175 2°54.32 19.1834 0.010307 0.057132 -1.766697
2008-05-28 06:44:11 51°15.186 2°54.308 19.1901 0.010307 0.057132 -1.731873
2008-05-28 06:44:17 51°15.204 2°54.291 19.1708 0.010307 0.057132 -1.766697
2008-05-28 06:44:22 51°15.219 2°54.276 19.1914 0.010307 0.057132 -1.766697
2008-05-28 06:44:27 51°15.233 2°54.262 19.1671 0.010307 0.057132 -1.766697
2008-05-28 06:44:32 51°15.248 2°54.247 19.1888 0.010307 0.057132 -1.766697
2008-05-28 06:44:37 51°15.263 2°54.233 19.1681 0.010307 0.057132 -1.731873
2008-05-28 06:44:42 51°15.278 2°54.219 19.1867 0.010307 0.057133 -1.766697
2008-05-28 06:44:47 51°15.292 2°54.204 19.1629 0.010307 0.057133 -1.731873
2008-05-28 06:44:51 51°15.304 2°54.193 19.1527 0.010307 0.057133 -1.731873
2008-05-28 06:44:56 51°15.319 2°54.179 19.1531 0.010307 0.057133 -1.731873
2008-05-28 06:45:02 51°15.337 2°54.163 19.1765 0.010307 0.057134 -1.731873
2008-05-28 06:45:07 51°15.352 2°54.149 19.1552 0.010307 0.057134 -1.731873
2008-05-28 06:45:11 51°15.364 2°54.138 19.183 0.010307 0.057134 -1.731873
2008-05-28 06:45:17 51°15.382 2°54.121 19.1831 0.010307 0.057134 -1.731873
2008-05-28 06:45:23 51°15.401 2°54.105 19.191 0.010307 0.057134 -1.731873
2008-05-28 06:45:28 51°15.416 2°54.092 19.1877 0.010307 0.057135 -1.766697
2008-05-28 06:45:32 51°15.428 2°54.081 19.1909 0.010307 0.057135 -1.731873
2008-05-28 06:45:37 51°15.443 2°54.068 19.1631 0.010307 0.057136 -1.731873
2008-05-28 06:45:42 51°15.459 2°54.055 19.1741 0.010307 0.057137 -1.766697
2008-05-28 06:45:48 51°15.477 2°54.04 19.1733 0.010307 0.057137 -1.731873
2008-05-28 06:45:52 51°15.49 2°54.03 19.1797 0.010307 0.057137 -1.731873
2008-05-28 06:45:57 51°15.505 2°54.017 19.1661 0.010307 0.057137 -1.731873
2008-05-28 06:46:02 51°15.521 2°54.004 19.1844 0.010307 0.057138 -1.766697
2008-05-28 06:46:08 51°15.539 2°53.988 19.1883 0.010307 0.057138 -1.731873
2008-05-28 06:46:13 51°15.555 2°53.975 19.187 0.010307 0.057139 -1.731873
2008-05-28 06:46:17 51°15.567 2°53.965 19.1942 0.010307 0.057139 -1.731873
2008-05-28 06:46:22 51°15.582 2°53.951 19.1937 0.010307 0.057139 -1.731873
2008-05-28 06:46:28 51°15.6 2°53.934 19.1816 0.010307 0.057139 -1.731873
2008-05-28 06:46:33 51°15.615 2°53.92 19.1629 0.010307 0.05714 -1.766697
2008-05-28 06:46:37 51°15.627 2°53.909 19.1646 0.010307 0.05714 -1.731873
2008-05-28 06:46:43 51°15.645 2°53.892 19.1832 0.010307 0.05714 -1.766697
2008-05-28 06:46:48 51°15.66 2°53.877 19.1703 0.010307 0.057141 -1.766697
2008-05-28 06:46:52 51°15.672 2°53.867 19.1865 0.010307 0.057141 -1.766697
2008-05-28 06:46:57 51°15.687 2°53.853 19.1877 0.010307 0.057141 -1.731873
2008-05-28 06:47:03 51°15.705 2°53.836 19.1851 0.010307 0.057142 -1.731873
2008-05-28 06:47:08 51°15.72 2°53.823 19.1863 0.010307 0.057142 -1.731873
2008-05-28 06:47:12 51°15.733 2°53.813 19.1754 0.010307 0.057142 -1.766697
2008-05-28 06:47:17 51°15.748 2°53.8 19.1921 0.010307 0.057143 -1.766697
2008-05-28 06:47:23 51°15.767 2°53.785 19.1719 0.010307 0.057143 -1.766697
2008-05-28 06:47:28 51°15.782 2°53.772 19.1758 0.010307 0.057143 -1.766697
2008-05-28 06:47:32 51°15.794 2°53.762 19.1797 0.010307 0.057144 -1.731873
2008-05-28 06:47:37 51°15.81 2°53.749 19.1973 0.010307 0.057144 -1.731873
2008-05-28 06:47:43 51°15.828 2°53.734 19.191 0.010307 0.057144 -1.731873
2008-05-28 06:47:48 51°15.843 2°53.721 19.1962 0.010307 0.057144 -1.731873
2008-05-28 06:47:52 51°15.856 2°53.711 19.1951 0.010307 0.057144 -1.731873
2008-05-28 06:47:57 51°15.871 2°53.698 19.1812 0.010307 0.057145 -1.731873
2008-05-28 06:48:02 51°15.886 2°53.684 19.1946 0.010307 0.057145 -1.731873
2008-05-28 06:48:08 51°15.904 2°53.668 19.1829 0.010307 0.057146 -1.766697
2008-05-28 06:48:12 51°15.915 2°53.657 19.1917 0.010307 0.057146 -1.766697
2008-05-28 06:48:17 51°15.93 2°53.643 19.194 0.010307 0.057146 -1.731873
2008-05-28 06:48:22 51°15.945 2°53.629 19.1912 0.010307 0.057146 -1.731873
2008-05-28 06:48:28 51°15.963 2°53.612 19.1898 0.010307 0.057146 -1.731873
2008-05-28 06:48:32 51°15.975 2°53.601 19.1986 0.010307 0.057146 -1.731873
2008-05-28 06:48:37 51°15.989 2°53.587 19.202 0.010307 0.057146 -1.766697
2008-05-28 06:48:42 51°16.004 2°53.573 19.1784 0.010307 0.057146 -1.731873
2008-05-28 06:48:48 51°16.022 2°53.556 19.1843 0.010307 0.057147 -1.731873
2008-05-28 06:48:53 51°16.037 2°53.543 19.2065 0.010307 0.057147 -1.731873
2008-05-28 06:48:57 51°16.049 2°53.531 19.1877 0.010307 0.057147 -1.731873
2008-05-28 06:49:03 51°16.067 2°53.516 19.1845 0.010307 0.057147 -1.731873
2008-05-28 06:49:08 51°16.082 2°53.502 19.1971 0.010307 0.057147 -1.731873
2008-05-28 06:49:12 51°16.094 2°53.491 19.1985 0.010307 0.057148 -1.731873
2008-05-28 06:49:17 51°16.109 2°53.477 19.1961 0.010307 0.057148 -1.731873
2008-05-28 06:49:23 51°16.127 2°53.462 19.185 0.010307 0.057148 -1.731873
2008-05-28 06:49:28 51°16.142 2°53.448 19.1751 0.010307 0.057149 -1.766697
2008-05-28 06:49:32 51°16.155 2°53.438 19.1839 0.010307 0.057149 -1.766697
2008-05-28 06:49:37 51°16.17 2°53.425 19.1997 0.010307 0.05715 -1.731873
2008-05-28 06:49:43 51°16.188 2°53.41 19.2094 0.010307 0.05715 -1.731873
2008-05-28 06:49:48 51°16.204 2°53.397 19.1971 0.010307 0.057151 -1.731873
2008-05-28 06:49:52 51°16.216 2°53.387 19.208 0.010307 0.057151 -1.731873
2008-05-28 06:49:57 51°16.232 2°53.374 19.1917 0.010307 0.057151 -1.731873
2008-05-28 06:50:02 51°16.247 2°53.362 19.2044 0.010307 0.057152 -1.731873
2008-05-28 06:50:08 51°16.265 2°53.346 19.2009 0.010307 0.057153 -1.766697
2008-05-28 06:50:12 51°16.278 2°53.336 19.2052 0.010307 0.057154 -1.731873
2008-05-28 06:50:17 51°16.293 2°53.323 19.1876 0.010307 0.057154 -1.731873
2008-05-28 06:50:22 51°16.309 2°53.309 19.2084 0.010307 0.057154 -1.731873
2008-05-28 06:50:28 51°16.327 2°53.294 19.203 0.010307 0.057154 -1.766697
2008-05-28 06:50:33 51°16.342 2°53.28 19.1855 0.010307 0.057154 -1.766697
2008-05-28 06:50:37 51°16.355 2°53.27 19.1886 0.010307 0.057154 -1.766697
2008-05-28 06:50:43 51°16.373 2°53.254 19.2018 0.010307 0.057155 -1.731873
2008-05-28 06:50:48 51°16.389 2°53.241 19.1962 0.010307 0.057155 -1.731873
2008-05-28 06:50:52 51°16.401 2°53.23 19.2086 0.010307 0.057155 -1.731873
2008-05-28 06:50:57 51°16.416 2°53.216 19.2101 0.010307 0.057155 -1.731873
2008-05-28 06:51:02 51°16.432 2°53.202 19.216 0.010307 0.057156 -1.766697
2008-05-28 06:51:08 51°16.45 2°53.185 19.219 0.010307 0.057156 -1.766697
2008-05-28 06:51:13 51°16.465 2°53.171 19.2146 0.010307 0.057156 -1.731873
2008-05-28 06:51:17 51°16.477 2°53.16 19.2189 0.010307 0.057156 -1.766697
2008-05-28 06:51:23 51°16.495 2°53.143 19.2163 0.010307 0.057156 -1.766697
2008-05-28 06:51:28 51°16.51 2°53.129 19.2028 0.010307 0.057156 -1.731873
2008-05-28 06:51:32 51°16.522 2°53.117 19.1905 0.010307 0.057156 -1.731873
2008-05-28 06:51:37 51°16.537 2°53.103 19.2162 0.010307 0.057156 -1.731873
2008-05-28 06:51:43 51°16.555 2°53.086 19.2057 0.010307 0.057156 -1.766697
2008-05-28 06:51:48 51°16.57 2°53.072 19.2184 0.010307 0.057157 -1.731873
2008-05-28 06:51:52 51°16.582 2°53.061 19.2223 0.010307 0.057157 -1.731873
2008-05-28 06:51:57 51°16.597 2°53.047 19.2147 0.010307 0.057157 -1.731873
2008-05-28 06:52:03 51°16.615 2°53.031 19.2115 0.010307 0.057158 -1.731873
2008-05-28 06:52:08 51°16.631 2°53.018 19.2053 0.010307 0.057158 -1.731873
2008-05-28 06:52:12 51°16.643 2°53.007 19.2196 0.010307 0.057158 -1.731873
2008-05-28 06:52:17 51°16.659 2°52.994 19.2078 0.010307 0.057159 -1.731873
2008-05-28 06:52:22 51°16.674 2°52.98 19.2019 0.010307 0.057159 -1.731873
2008-05-28 06:52:28 51°16.693 2°52.965 19.2131 0.010307 0.05716 -1.731873
2008-05-28 06:52:32 51°16.705 2°52.954 19.2206 0.010307 0.057161 -1.731873
2008-05-28 06:52:37 51°16.721 2°52.941 19.2176 0.010307 0.057161 -1.731873
2008-05-28 06:52:42 51°16.737 2°52.928 19.212 0.010307 0.057161 -1.731873
2008-05-28 06:52:48 51°16.756 2°52.913 19.2059 0.010307 0.057161 -1.731873
2008-05-28 06:52:53 51°16.771 2°52.9 19.2251 0.010307 0.057161 -1.731873
2008-05-28 06:52:57 51°16.784 2°52.89 19.227 0.010307 0.057161 -1.731873
2008-05-28 06:53:02 51°16.799 2°52.877 19.2273 0.010307 0.057161 -1.731873
2008-05-28 06:53:08 51°16.818 2°52.861 19.2285 0.010307 0.057162 -1.731873
2008-05-28 06:53:13 51°16.834 2°52.849 19.2318 0.010307 0.057162 -1.731873
2008-05-28 06:53:17 51°16.846 2°52.839 19.2284 0.010307 0.057162 -1.731873
2008-05-28 06:53:23 51°16.865 2°52.823 19.223 0.010307 0.057162 -1.731873
2008-05-28 06:53:28 51°16.881 2°52.81 19.2364 0.010307 0.057162 -1.731873
2008-05-28 06:53:32 51°16.894 2°52.8 19.232 0.010307 0.057163 -1.731873
2008-05-28 06:53:37 51°16.909 2°52.787 19.2203 0.010307 0.057163 -1.731873
2008-05-28 06:53:42 51°16.925 2°52.774 19.2165 0.010307 0.057163 -1.731873
2008-05-28 06:53:48 51°16.944 2°52.759 19.2178 0.010307 0.057163 -1.731873
2008-05-28 06:53:52 51°16.957 2°52.748 19.2285 0.010307 0.057163 -1.731873
2008-05-28 06:53:57 51°16.972 2°52.735 19.2224 0.010307 0.057163 -1.731873
2008-05-28 06:54:03 51°16.992 2°52.72 19.2209 0.010307 0.057163 -1.731873
2008-05-28 06:54:08 51°17.008 2°52.707 19.2242 0.010307 0.057163 -1.731873
2008-05-28 06:54:12 51°17.021 2°52.698 19.23 0.010307 0.057164 -1.731873
2008-05-28 06:54:17 51°17.037 2°52.685 19.2364 0.010307 0.057165 -1.731873
2008-05-28 06:54:23 51°17.056 2°52.671 19.23 0.010307 0.057165 -1.731873
2008-05-28 06:54:28 51°17.073 2°52.659 19.2367 0.010307 0.057166 -1.766697
2008-05-28 06:54:32 51°17.085 2°52.65 19.2408 0.010307 0.057166 -1.731873
2008-05-28 06:54:37 51°17.102 2°52.638 19.2387 0.010307 0.057166 -1.731873
2008-05-28 06:54:43 51°17.121 2°52.624 19.228 0.010307 0.057166 -1.731873
2008-05-28 06:54:48 51°17.137 2°52.613 19.2275 0.010307 0.057167 -1.731873
2008-05-28 06:54:52 51°17.15 2°52.603 19.2207 0.010307 0.057167 -1.731873
2008-05-28 06:54:57 51°17.166 2°52.591 19.2235 0.010307 0.057167 -1.731873
2008-05-28 06:55:02 51°17.182 2°52.58 19.2343 0.010307 0.057167 -1.731873
2008-05-28 06:55:07 51°17.198 2°52.567 19.2284 0.010307 0.057168 -1.731873
2008-05-28 06:55:12 51°17.214 2°52.556 19.227 0.010307 0.057168 -1.766697
2008-05-28 06:55:17 51°17.23 2°52.543 19.2292 0.010307 0.057168 -1.731873
2008-05-28 06:55:22 51°17.247 2°52.533 19.2326 0.010307 0.057168 -1.731873
2008-05-28 06:55:28 51°17.267 2°52.52 19.2313 0.010307 0.057168 -1.731873
2008-05-28 06:55:33 51°17.284 2°52.51 19.2387 0.010307 0.057168 -1.731873
2008-05-28 06:55:37 51°17.297 2°52.502 19.2425 0.010307 0.057169 -1.731873
2008-05-28 06:55:43 51°17.318 2°52.491 19.2421 0.010307 0.05717 -1.731873
2008-05-28 06:55:48 51°17.335 2°52.482 19.2335 0.010307 0.05717 -1.731873
2008-05-28 06:55:53 51°17.352 2°52.473 19.2408 0.010307 0.05717 -1.731873
2008-05-28 06:55:57 51°17.365 2°52.466 19.2472 0.010307 0.057171 -1.731873
2008-05-28 06:56:03 51°17.386 2°52.456 19.2468 0.010307 0.057171 -1.731873
2008-05-28 06:56:08 51°17.403 2°52.447 19.2374 0.010307 0.057171 -1.731873
2008-05-28 06:56:12 51°17.417 2°52.441 19.2257 0.010307 0.057171 -1.731873
2008-05-28 06:56:17 51°17.434 2°52.434 19.2421 0.010307 0.057171 -1.731873
2008-05-28 06:56:23 51°17.455 2°52.425 19.2544 0.010307 0.057171 -1.731873
2008-05-28 06:56:28 51°17.472 2°52.418 19.247 0.010307 0.057172 -1.731873
2008-05-28 06:56:32 51°17.486 2°52.412 19.2491 0.010307 0.057172 -1.731873
2008-05-28 06:56:37 51°17.503 2°52.404 19.2313 0.010307 0.057173 -1.731873
2008-05-28 06:56:43 51°17.524 2°52.396 19.2467 0.010307 0.057173 -1.766697
2008-05-28 06:56:48 51°17.541 2°52.389 19.2489 0.010307 0.057173 -1.731873
2008-05-28 06:56:52 51°17.555 2°52.385 19.2446 0.010307 0.057173 -1.731873
2008-05-28 06:56:57 51°17.573 2°52.379 19.2442 0.010307 0.057173 -1.731873
2008-05-28 06:57:03 51°17.594 2°52.372 19.2571 0.010307 0.057173 -1.731873
2008-05-28 06:57:08 51°17.612 2°52.368 19.2509 0.010307 0.057174 -1.731873
2008-05-28 06:57:13 51°17.629 2°52.363 19.242 0.010307 0.057174 -1.731873
2008-05-28 06:57:17 51°17.644 2°52.359 19.2593 0.010307 0.057175 -1.731873
2008-05-28 06:57:22 51°17.661 2°52.354 19.2605 0.010307 0.057175 -1.731873
2008-05-28 06:57:28 51°17.683 2°52.348 19.2459 0.010307 0.057175 -1.731873
2008-05-28 06:57:32 51°17.697 2°52.344 19.2528 0.010307 0.057175 -1.731873
2008-05-28 06:57:37 51°17.715 2°52.339 19.2534 0.010307 0.057175 -1.731873
2008-05-28 06:57:42 51°17.732 2°52.333 19.2585 0.010307 0.057175 -1.731873
2008-05-28 06:57:48 51°17.754 2°52.326 19.266 0.010307 0.057175 -1.731873
2008-05-28 06:57:53 51°17.771 2°52.321 19.2469 0.010307 0.057175 -1.731873
2008-05-28 06:57:57 51°17.785 2°52.316 19.2532 0.010307 0.057175 -1.731873
2008-05-28 06:58:02 51°17.802 2°52.31 19.2431 0.010307 0.057175 -1.766697
2008-05-28 06:58:08 51°17.823 2°52.304 19.253 0.010307 0.057175 -1.731873
2008-05-28 06:58:12 51°17.838 2°52.3 19.2458 0.010307 0.057175 -1.731873
2008-05-28 06:58:17 51°17.856 2°52.296 19.2599 0.010307 0.057175 -1.731873
2008-05-28 06:58:23 51°17.877 2°52.291 19.2458 0.010307 0.057175 -1.731873
2008-05-28 06:58:28 51°17.895 2°52.288 19.2505 0.010307 0.057175 -1.731873
2008-05-28 06:58:32 51°17.909 2°52.286 19.2511 0.010307 0.057175 -1.731873
2008-05-28 06:58:38 51°17.931 2°52.283 19.2454 0.010307 0.057176 -1.731873
2008-05-28 06:58:43 51°17.949 2°52.281 19.2554 0.010307 0.057177 -1.731873
2008-05-28 06:58:48 51°17.967 2°52.28 19.2647 0.010307 0.057177 -1.731873
2008-05-28 06:58:52 51°17.982 2°52.278 19.2506 0.010307 0.057177 -1.731873
2008-05-28 06:58:57 51°18 2°52.278 19.2671 0.010307 0.057177 -1.731873
2008-05-28 06:59:03 51°18.022 2°52.277 19.2768 0.010307 0.057178 -1.731873
2008-05-28 06:59:08 51°18.04 2°52.277 19.2758 0.010307 0.057178 -1.731873
2008-05-28 06:59:12 51°18.054 2°52.277 19.2766 0.010307 0.057178 -1.731873
2008-05-28 06:59:17 51°18.073 2°52.276 19.2715 0.010307 0.057179 -1.731873
2008-05-28 06:59:22 51°18.091 2°52.276 19.2701 0.010307 0.057179 -1.731873
2008-05-28 06:59:28 51°18.113 2°52.275 19.2691 0.010307 0.05718 -1.731873
2008-05-28 06:59:32 51°18.128 2°52.275 19.2624 0.010307 0.05718 -1.731873
2008-05-28 06:59:37 51°18.146 2°52.275 19.2588 0.010307 0.05718 -1.731873
2008-05-28 06:59:42 51°18.165 2°52.276 19.2799 0.010307 0.057181 -1.731873
2008-05-28 06:59:48 51°18.186 2°52.277 19.2724 0.010307 0.057181 -1.766697
2008-05-28 06:59:53 51°18.204 2°52.278 19.2624 0.010307 0.057181 -1.766697
2008-05-28 06:59:57 51°18.219 2°52.28 19.2747 0.010307 0.057182 -1.731873
2008-05-28 07:00:03 51°18.241 2°52.281 19.2774 0.010307 0.057183 -1.731873
2008-05-28 07:00:08 51°18.259 2°52.282 19.2781 0.010307 0.057183 -1.731873
2008-05-28 07:00:12 51°18.273 2°52.282 19.2782 0.010307 0.057183 -1.731873
2008-05-28 07:00:17 51°18.292 2°52.283 19.2816 0.010307 0.057184 -1.731873
2008-05-28 07:00:22 51°18.31 2°52.283 19.2747 0.010307 0.057184 -1.731873
2008-05-28 07:00:28 51°18.331 2°52.283 19.2862 0.010307 0.057185 -1.731873
2008-05-28 07:00:32 51°18.346 2°52.283 19.2885 0.010307 0.057185 -1.731873
2008-05-28 07:00:37 51°18.364 2°52.282 19.274 0.010307 0.057185 -1.731873
2008-05-28 07:00:43 51°18.385 2°52.283 19.2761 0.010307 0.057185 -1.731873
2008-05-28 07:00:48 51°18.403 2°52.284 19.2693 0.010307 0.057186 -1.766697
2008-05-28 07:00:52 51°18.417 2°52.284 19.2742 0.010307 0.057186 -1.766697
2008-05-28 07:00:57 51°18.435 2°52.286 19.2841 0.010307 0.057186 -1.731873
2008-05-28 07:01:03 51°18.457 2°52.288 19.2854 0.010307 0.057186 -1.731873
2008-05-28 07:01:08 51°18.475 2°52.289 19.2851 0.010307 0.057187 -1.731873
2008-05-28 07:01:12 51°18.49 2°52.291 19.291 0.010307 0.057187 -1.766697
2008-05-28 07:01:17 51°18.508 2°52.293 19.2901 0.010307 0.057187 -1.731873
2008-05-28 07:01:23 51°18.529 2°52.295 19.2768 0.010307 0.057187 -1.731873
2008-05-28 07:01:28 51°18.547 2°52.297 19.2752 0.010307 0.057187 -1.731873
2008-05-28 07:01:32 51°18.562 2°52.299 19.2899 0.010307 0.057187 -1.731873
2008-05-28 07:01:37 51°18.58 2°52.301 19.2907 0.010307 0.057187 -1.731873
2008-05-28 07:01:42 51°18.598 2°52.303 19.2962 0.010307 0.057187 -1.731873
2008-05-28 07:01:48 51°18.62 2°52.304 19.2827 0.010307 0.057188 -1.731873
2008-05-28 07:01:52 51°18.634 2°52.305 19.2856 0.010307 0.057188 -1.731873
2008-05-28 07:01:57 51°18.652 2°52.305 19.2866 0.010307 0.057188 -1.731873
2008-05-28 07:02:02 51°18.67 2°52.305 19.2809 0.010307 0.057188 -1.731873
2008-05-28 07:02:08 51°18.692 2°52.306 19.2927 0.010307 0.057188 -1.731873
2008-05-28 07:02:13 51°18.71 2°52.307 19.2874 0.010307 0.057188 -1.766697
2008-05-28 07:02:17 51°18.725 2°52.308 19.2791 0.010307 0.057189 -1.731873
2008-05-28 07:02:23 51°18.747 2°52.309 19.2968 0.010307 0.057189 -1.731873
2008-05-28 07:02:28 51°18.765 2°52.311 19.2877 0.010307 0.057189 -1.731873
2008-05-28 07:02:32 51°18.78 2°52.313 19.3021 0.010307 0.057189 -1.766697
2008-05-28 07:02:37 51°18.798 2°52.314 19.2827 0.010307 0.057189 -1.731873
2008-05-28 07:02:43 51°18.819 2°52.316 19.2907 0.010307 0.05719 -1.731873
2008-05-28 07:02:48 51°18.837 2°52.318 19.2937 0.010307 0.05719 -1.731873
2008-05-28 07:02:52 51°18.852 2°52.32 19.2994 0.010307 0.05719 -1.731873
2008-05-28 07:02:57 51°18.87 2°52.321 19.2923 0.010307 0.05719 -1.731873
2008-05-28 07:03:03 51°18.892 2°52.324 19.304 0.010307 0.05719 -1.731873
2008-05-28 07:03:08 51°18.91 2°52.326 19.3025 0.010307 0.05719 -1.731873
2008-05-28 07:03:12 51°18.924 2°52.328 19.308 0.010307 0.05719 -1.766697
2008-05-28 07:03:17 51°18.942 2°52.328 19.3002 0.010307 0.057191 -1.731873
2008-05-28 07:03:23 51°18.964 2°52.329 19.3108 0.010307 0.057191 -1.731873
2008-05-28 07:03:28 51°18.983 2°52.33 19.3076 0.010307 0.057191 -1.731873
2008-05-28 07:03:32 51°18.997 2°52.331 19.3066 0.010307 0.057191 -1.731873
2008-05-28 07:03:37 51°19.016 2°52.331 19.3065 0.010307 0.057191 -1.731873
2008-05-28 07:03:43 51°19.037 2°52.331 19.3046 0.010307 0.057191 -1.766697
2008-05-28 07:03:48 51°19.056 2°52.332 19.301 0.010307 0.057192 -1.731873
2008-05-28 07:03:52 51°19.07 2°52.332 19.2897 0.010307 0.057192 -1.731873
2008-05-28 07:03:57 51°19.088 2°52.333 19.3025 0.010307 0.057192 -1.731873
2008-05-28 07:04:02 51°19.107 2°52.334 19.3 0.010307 0.057192 -1.766697
2008-05-28 07:04:08 51°19.129 2°52.336 19.312 0.010307 0.057192 -1.731873
2008-05-28 07:04:12 51°19.143 2°52.337 19.3007 0.010307 0.057192 -1.731873
2008-05-28 07:04:17 51°19.162 2°52.338 19.315 0.010307 0.057192 -1.731873
2008-05-28 07:04:22 51°19.18 2°52.339 19.3094 0.010307 0.057192 -1.731873
2008-05-28 07:04:28 51°19.202 2°52.34 19.3158 0.010307 0.057192 -1.731873
2008-05-28 07:04:33 51°19.221 2°52.34 19.3137 0.010307 0.057192 -1.731873
2008-05-28 07:04:37 51°19.235 2°52.34 19.3135 0.010307 0.057192 -1.766697
2008-05-28 07:04:42 51°19.254 2°52.341 19.3163 0.010307 0.057192 -1.731873
2008-05-28 07:04:48 51°19.276 2°52.342 19.3149 0.010307 0.057193 -1.731873
2008-05-28 07:04:53 51°19.294 2°52.344 19.3104 0.010307 0.057193 -1.731873
2008-05-28 07:04:57 51°19.309 2°52.345 19.314 0.010307 0.057193 -1.766697
2008-05-28 07:05:03 51°19.331 2°52.347 19.3174 0.010307 0.057193 -1.731873
2008-05-28 07:05:08 51°19.35 2°52.35 19.324 0.010307 0.057192 -1.766697
2008-05-28 07:05:12 51°19.365 2°52.352 19.3136 0.010307 0.057193 -1.766697
2008-05-28 07:05:18 51°19.387 2°52.355 19.3112 0.010307 0.057193 -1.731873
2008-05-28 07:05:23 51°19.405 2°52.358 19.3238 0.010307 0.057193 -1.731873
2008-05-28 07:05:28 51°19.424 2°52.361 19.3107 0.010307 0.057194 -1.731873
2008-05-28 07:05:32 51°19.438 2°52.363 19.3184 0.010307 0.057195 -1.731873
2008-05-28 07:05:37 51°19.457 2°52.366 19.3214 0.010307 0.057194 -1.731873
2008-05-28 07:05:43 51°19.479 2°52.369 19.3108 0.010307 0.057195 -1.731873
2008-05-28 07:05:48 51°19.497 2°52.373 19.3142 0.010307 0.057195 -1.731873
2008-05-28 07:05:52 51°19.512 2°52.375 19.3223 0.010307 0.057195 -1.731873
2008-05-28 07:05:57 51°19.53 2°52.377 19.3083 0.010307 0.057195 -1.731873
2008-05-28 07:06:02 51°19.549 2°52.379 19.3216 0.010307 0.057195 -1.731873
2008-05-28 07:06:08 51°19.571 2°52.381 19.3157 0.010307 0.057195 -1.731873
2008-05-28 07:06:12 51°19.586 2°52.383 19.3202 0.010307 0.057195 -1.731873
2008-05-28 07:06:17 51°19.605 2°52.385 19.3223 0.010307 0.057196 -1.731873
2008-05-28 07:06:22 51°19.623 2°52.387 19.3185 0.010307 0.057196 -1.731873
2008-05-28 07:06:28 51°19.646 2°52.389 19.335 0.010307 0.057196 -1.731873
2008-05-28 07:06:33 51°19.664 2°52.39 19.3274 0.010307 0.057196 -1.731873
2008-05-28 07:06:37 51°19.679 2°52.392 19.3284 0.010307 0.057197 -1.731873
2008-05-28 07:06:43 51°19.701 2°52.394 19.3297 0.010307 0.057197 -1.731873
2008-05-28 07:06:48 51°19.72 2°52.396 19.3324 0.010307 0.057197 -1.731873
2008-05-28 07:06:52 51°19.735 2°52.397 19.3201 0.010307 0.057197 -1.731873
2008-05-28 07:06:57 51°19.753 2°52.398 19.3286 0.010307 0.057197 -1.766697
2008-05-28 07:07:02 51°19.772 2°52.401 19.3285 0.010307 0.057197 -1.766697
2008-05-28 07:07:08 51°19.794 2°52.403 19.3277 0.010307 0.057197 -1.731873
2008-05-28 07:07:13 51°19.812 2°52.406 19.3215 0.010307 0.057197 -1.766697
2008-05-28 07:07:17 51°19.827 2°52.409 19.3169 0.010307 0.057197 -1.731873
2008-05-28 07:07:23 51°19.85 2°52.413 19.3336 0.010307 0.057197 -1.731873
2008-05-28 07:07:28 51°19.868 2°52.417 19.3264 0.010307 0.057197 -1.731873
2008-05-28 07:07:32 51°19.883 2°52.419 19.3285 0.010307 0.057197 -1.731873
2008-05-28 07:07:37 51°19.902 2°52.423 19.3476 0.010307 0.057197 -1.731873
2008-05-28 07:07:43 51°19.924 2°52.427 19.3398 0.010307 0.057197 -1.766697
2008-05-28 07:07:48 51°19.942 2°52.43 19.3433 0.010307 0.057197 -1.731873
2008-05-28 07:07:52 51°19.957 2°52.432 19.3444 0.010307 0.057197 -1.731873
2008-05-28 07:07:57 51°19.976 2°52.435 19.3336 0.010307 0.057197 -1.731873
2008-05-28 07:08:02 51°19.994 2°52.439 19.3383 0.010307 0.057197 -1.731873
2008-05-28 07:08:07 51°20.013 2°52.443 19.3452 0.010307 0.057198 -1.731873
2008-05-28 07:08:12 51°20.031 2°52.447 19.3461 0.010307 0.057198 -1.731873
2008-05-28 07:08:16 51°20.046 2°52.45 19.3302 0.010307 0.057199 -1.731873
2008-05-28 07:08:21 51°20.065 2°52.454 19.331 0.010307 0.057199 -1.731873
2008-05-28 07:08:26 51°20.083 2°52.46 19.3441 0.010307 0.057199 -1.731873
2008-05-28 07:08:31 51°20.102 2°52.465 19.3337 0.010307 0.057199 -1.731873
2008-05-28 07:08:36 51°20.12 2°52.471 19.3478 0.010307 0.057199 -1.731873
2008-05-28 07:08:40 51°20.134 2°52.475 19.3499 0.010307 0.057199 -1.731873
2008-05-28 07:08:45 51°20.153 2°52.481 19.3509 0.010307 0.0572 -1.731873
2008-05-28 07:08:50 51°20.171 2°52.487 19.3544 0.010307 0.0572 -1.731873
2008-05-28 07:08:54 51°20.185 2°52.492 19.3528 0.010307 0.0572 -1.766697
2008-05-28 07:08:59 51°20.204 2°52.497 19.3558 0.010307 0.0572 -1.766697
2008-05-28 07:09:04 51°20.221 2°52.503 19.3546 0.010307 0.0572 -1.731873
2008-05-28 07:09:09 51°20.24 2°52.509 19.3517 0.010307 0.057201 -1.731873
2008-05-28 07:09:14 51°20.258 2°52.514 19.3437 0.010307 0.057201 -1.731873
2008-05-28 07:09:19 51°20.276 2°52.519 19.3449 0.010307 0.057201 -1.731873
2008-05-28 07:09:24 51°20.294 2°52.524 19.3465 0.010307 0.057202 -1.731873
2008-05-28 07:09:29 51°20.313 2°52.53 19.3565 0.010307 0.057201 -1.731873
2008-05-28 07:09:34 51°20.331 2°52.535 19.3621 0.010307 0.057202 -1.731873
2008-05-28 07:09:39 51°20.349 2°52.541 19.3586 0.010307 0.057202 -1.766697
2008-05-28 07:09:44 51°20.367 2°52.546 19.3554 0.010307 0.057202 -1.731873
2008-05-28 07:09:49 51°20.385 2°52.552 19.3562 0.010307 0.057202 -1.731873
2008-05-28 07:09:54 51°20.403 2°52.557 19.3524 0.010307 0.057202 -1.731873
2008-05-28 07:09:59 51°20.421 2°52.564 19.3615 0.010307 0.057202 -1.731873
2008-05-28 07:10:04 51°20.439 2°52.57 19.3524 0.010307 0.057202 -1.731873
2008-05-28 07:10:09 51°20.457 2°52.576 19.358 0.010307 0.057202 -1.731873
2008-05-28 07:10:14 51°20.475 2°52.582 19.3584 0.010307 0.057203 -1.731873
2008-05-28 07:10:19 51°20.493 2°52.588 19.3694 0.010307 0.057203 -1.731873
2008-05-28 07:10:24 51°20.511 2°52.594 19.3705 0.010307 0.057203 -1.731873
2008-05-28 07:10:29 51°20.529 2°52.6 19.366 0.010307 0.057203 -1.731873
2008-05-28 07:10:34 51°20.547 2°52.605 19.3775 0.010307 0.057202 -1.731873
2008-05-28 07:10:39 51°20.565 2°52.61 19.3586 0.010307 0.057203 -1.731873
2008-05-28 07:10:44 51°20.583 2°52.614 19.3646 0.010307 0.057204 -1.731873
2008-05-28 07:10:49 51°20.601 2°52.618 19.3638 0.010307 0.057204 -1.731873
2008-05-28 07:10:54 51°20.619 2°52.621 19.3579 0.010307 0.057204 -1.731873
2008-05-28 07:10:59 51°20.637 2°52.625 19.3602 0.010307 0.057204 -1.731873
2008-05-28 07:11:04 51°20.655 2°52.628 19.3687 0.010307 0.057205 -1.766697
2008-05-28 07:11:09 51°20.673 2°52.631 19.3693 0.010307 0.057205 -1.731873
2008-05-28 07:11:14 51°20.691 2°52.633 19.3725 0.010307 0.057205 -1.766697
2008-05-28 07:11:19 51°20.71 2°52.636 19.3723 0.010307 0.057205 -1.766697
2008-05-28 07:11:24 51°20.728 2°52.639 19.3605 0.010307 0.057205 -1.731873
2008-05-28 07:11:29 51°20.746 2°52.641 19.3693 0.010307 0.057205 -1.731873
2008-05-28 07:11:34 51°20.765 2°52.644 19.3662 0.010307 0.057205 -1.731873
2008-05-28 07:11:39 51°20.783 2°52.646 19.371 0.010307 0.057205 -1.731873
2008-05-28 07:11:44 51°20.801 2°52.649 19.3745 0.010307 0.057205 -1.731873
2008-05-28 07:11:49 51°20.819 2°52.652 19.364 0.010307 0.057205 -1.731873
2008-05-28 07:11:54 51°20.837 2°52.656 19.366 0.010307 0.057205 -1.731873
2008-05-28 07:11:59 51°20.855 2°52.66 19.3683 0.010307 0.057205 -1.766697
2008-05-28 07:12:04 51°20.873 2°52.663 19.3678 0.010307 0.057205 -1.731873
2008-05-28 07:12:09 51°20.891 2°52.666 19.3792 0.010307 0.057205 -1.801521
2008-05-28 07:12:14 51°20.909 2°52.669 19.3853 0.010307 0.057205 -1.731873
2008-05-28 07:12:19 51°20.927 2°52.672 19.3838 0.010307 0.057205 -1.731873
2008-05-28 07:12:24 51°20.946 2°52.674 19.3811 0.010307 0.057205 -1.731873
2008-05-28 07:12:29 51°20.964 2°52.676 19.3808 0.010307 0.057206 -1.731873
2008-05-28 07:12:34 51°20.982 2°52.678 19.3823 0.010307 0.057205 -1.731873
2008-05-28 07:12:40 51°21.003 2°52.679 19.3863 0.010307 0.057206 -1.731873
2008-05-28 07:12:44 51°21.018 2°52.68 19.3804 0.010307 0.057206 -1.731873
2008-05-28 07:12:49 51°21.036 2°52.681 19.3845 0.010307 0.057206 -1.731873
2008-05-28 07:12:54 51°21.054 2°52.682 19.3791 0.010307 0.057206 -1.731873
2008-05-28 07:12:59 51°21.072 2°52.683 19.385 0.010307 0.057206 -1.766697
2008-05-28 07:13:04 51°21.09 2°52.685 19.374 0.010307 0.057206 -1.766697
2008-05-28 07:13:09 51°21.108 2°52.687 19.3741 0.010307 0.057206 -1.731873
2008-05-28 07:13:14 51°21.126 2°52.689 19.3806 0.010307 0.057206 -1.731873
2008-05-28 07:13:19 51°21.145 2°52.692 19.3766 0.010307 0.057206 -1.731873
2008-05-28 07:13:24 51°21.163 2°52.694 19.376 0.010307 0.057206 -1.731873
2008-05-28 07:13:29 51°21.181 2°52.696 19.3888 0.010307 0.057206 -1.731873
2008-05-28 07:13:34 51°21.199 2°52.699 19.3929 0.010307 0.057207 -1.731873
2008-05-28 07:13:39 51°21.218 2°52.701 19.3889 0.010307 0.057207 -1.731873
2008-05-28 07:13:44 51°21.236 2°52.703 19.3928 0.010307 0.057207 -1.731873
2008-05-28 07:13:49 51°21.254 2°52.705 19.3832 0.010307 0.057207 -1.731873
2008-05-28 07:13:54 51°21.272 2°52.707 19.3858 0.010307 0.057207 -1.731873
2008-05-28 07:13:59 51°21.291 2°52.709 19.3914 0.010307 0.057207 -1.731873
2008-05-28 07:14:04 51°21.309 2°52.711 19.3922 0.010307 0.057207 -1.731873
2008-05-28 07:14:09 51°21.327 2°52.714 19.3942 0.010307 0.057207 -1.731873
2008-05-28 07:14:14 51°21.346 2°52.716 19.3966 0.010307 0.057207 -1.766697
2008-05-28 07:14:19 51°21.364 2°52.719 19.3966 0.010307 0.057207 -1.766697
2008-05-28 07:14:24 51°21.382 2°52.721 19.4 0.010307 0.057207 -1.766697
2008-05-28 07:14:29 51°21.401 2°52.723 19.3884 0.010307 0.057207 -1.731873
2008-05-28 07:14:34 51°21.419 2°52.726 19.3914 0.010307 0.057207 -1.731873
2008-05-28 07:14:39 51°21.437 2°52.729 19.3967 0.010307 0.057207 -1.766697
2008-05-28 07:14:44 51°21.455 2°52.731 19.3944 0.010307 0.057208 -1.731873
2008-05-28 07:14:49 51°21.474 2°52.733 19.4062 0.010307 0.057208 -1.731873
2008-05-28 07:14:54 51°21.492 2°52.734 19.3981 0.010307 0.057208 -1.766697
2008-05-28 07:14:59 51°21.51 2°52.736 19.4051 0.010307 0.057208 -1.731873
2008-05-28 07:15:04 51°21.528 2°52.738 19.4012 0.010307 0.057208 -1.731873
2008-05-28 07:15:09 51°21.546 2°52.739 19.3968 0.010307 0.057208 -1.766697
2008-05-28 07:15:14 51°21.565 2°52.741 19.3996 0.010307 0.057209 -1.731873
2008-05-28 07:15:20 51°21.587 2°52.743 19.4066 0.010307 0.057209 -1.731873
2008-05-28 07:15:24 51°21.602 2°52.744 19.3997 0.010307 0.057209 -1.731873
2008-05-28 07:15:29 51°21.62 2°52.746 19.4053 0.010307 0.057209 -1.731873
2008-05-28 07:15:34 51°21.638 2°52.747 19.4074 0.010307 0.057208 -1.731873
2008-05-28 07:15:39 51°21.657 2°52.749 19.4076 0.010307 0.057208 -1.731873
2008-05-28 07:15:44 51°21.675 2°52.752 19.4145 0.010307 0.057208 -1.731873
2008-05-28 07:15:49 51°21.693 2°52.754 19.4118 0.010307 0.057208 -1.731873
2008-05-28 07:15:54 51°21.712 2°52.756 19.4111 0.010307 0.057209 -1.731873
2008-05-28 07:15:59 51°21.73 2°52.759 19.4106 0.010307 0.057209 -1.731873
2008-05-28 07:16:04 51°21.749 2°52.762 19.4133 0.010307 0.057208 -1.731873
2008-05-28 07:16:09 51°21.767 2°52.764 19.4062 0.010307 0.057209 -1.731873
2008-05-28 07:16:14 51°21.786 2°52.767 19.4034 0.010307 0.057209 -1.766697
2008-05-28 07:16:19 51°21.804 2°52.769 19.4052 0.010307 0.057209 -1.766697
2008-05-28 07:16:24 51°21.822 2°52.772 19.4062 0.010307 0.057209 -1.731873
2008-05-28 07:16:29 51°21.841 2°52.774 19.414 0.010307 0.057209 -1.731873
2008-05-28 07:16:34 51°21.859 2°52.776 19.4073 0.010307 0.057209 -1.731873
2008-05-28 07:16:39 51°21.877 2°52.777 19.4155 0.010307 0.057209 -1.731873
2008-05-28 07:16:44 51°21.896 2°52.779 19.407 0.010307 0.057209 -1.731873
2008-05-28 07:16:49 51°21.914 2°52.78 19.4064 0.010307 0.057209 -1.731873
2008-05-28 07:16:54 51°21.933 2°52.782 19.4127 0.010307 0.057209 -1.731873
2008-05-28 07:16:59 51°21.952 2°52.785 19.4073 0.010307 0.057209 -1.731873
2008-05-28 07:17:04 51°21.97 2°52.787 19.4196 0.010307 0.057209 -1.731873
2008-05-28 07:17:09 51°21.989 2°52.79 19.423 0.010307 0.057209 -1.731873
2008-05-28 07:17:14 51°22.007 2°52.793 19.4199 0.010307 0.05721 -1.731873
2008-05-28 07:17:19 51°22.026 2°52.796 19.4129 0.010307 0.05721 -1.731873
2008-05-28 07:17:24 51°22.044 2°52.798 19.4225 0.010307 0.057209 -1.731873
2008-05-28 07:17:29 51°22.063 2°52.801 19.4315 0.010307 0.05721 -1.731873
2008-05-28 07:17:34 51°22.081 2°52.804 19.4168 0.010307 0.057209 -1.731873
2008-05-28 07:17:40 51°22.104 2°52.806 19.4121 0.010307 0.05721 -1.766697
2008-05-28 07:17:44 51°22.119 2°52.808 19.425 0.010307 0.05721 -1.731873
2008-05-28 07:17:49 51°22.137 2°52.81 19.4242 0.010307 0.05721 -1.731873
2008-05-28 07:17:54 51°22.156 2°52.813 19.427 0.010307 0.05721 -1.731873
2008-05-28 07:17:59 51°22.174 2°52.815 19.4257 0.010307 0.05721 -1.731873
2008-05-28 07:18:04 51°22.192 2°52.817 19.4197 0.010307 0.057211 -1.731873
2008-05-28 07:18:09 51°22.211 2°52.819 19.4274 0.010307 0.05721 -1.731873
2008-05-28 07:18:14 51°22.229 2°52.821 19.4183 0.010307 0.057211 -1.731873
2008-05-28 07:18:19 51°22.248 2°52.824 19.4328 0.010307 0.057211 -1.731873
2008-05-28 07:18:24 51°22.266 2°52.826 19.4218 0.010307 0.057211 -1.766697
2008-05-28 07:18:29 51°22.284 2°52.828 19.4313 0.010307 0.057212 -1.731873
2008-05-28 07:18:34 51°22.302 2°52.831 19.4236 0.010307 0.057212 -1.766697
2008-05-28 07:18:39 51°22.321 2°52.833 19.4324 0.010307 0.057212 -1.731873
2008-05-28 07:18:44 51°22.339 2°52.835 19.4271 0.010307 0.057212 -1.731873
2008-05-28 07:18:49 51°22.358 2°52.837 19.431 0.010307 0.057212 -1.731873
2008-05-28 07:18:54 51°22.376 2°52.839 19.4275 0.010307 0.057212 -1.766697
2008-05-28 07:18:59 51°22.395 2°52.841 19.4388 0.010307 0.057212 -1.766697
2008-05-28 07:19:04 51°22.413 2°52.844 19.4364 0.010307 0.057212 -1.731873
2008-05-28 07:19:09 51°22.432 2°52.846 19.4303 0.010307 0.057212 -1.766697
2008-05-28 07:19:14 51°22.45 2°52.848 19.4349 0.010307 0.057212 -1.731873
2008-05-28 07:19:19 51°22.469 2°52.851 19.4376 0.010307 0.057212 -1.731873
2008-05-28 07:19:24 51°22.488 2°52.853 19.4456 0.010307 0.057213 -1.801521
2008-05-28 07:19:29 51°22.506 2°52.856 19.4493 0.010307 0.057213 -1.731873
2008-05-28 07:19:34 51°22.524 2°52.859 19.4444 0.010307 0.057213 -1.731873
2008-05-28 07:19:40 51°22.546 2°52.863 19.4461 0.010307 0.057213 -1.731873
2008-05-28 07:19:44 51°22.561 2°52.865 19.4448 0.010307 0.057214 -1.731873
2008-05-28 07:19:49 51°22.58 2°52.868 19.4459 0.010307 0.057214 -1.731873
2008-05-28 07:19:54 51°22.598 2°52.87 19.4362 0.010307 0.057214 -1.766697
2008-05-28 07:19:59 51°22.617 2°52.873 19.4391 0.010307 0.057214 -1.731873
2008-05-28 07:20:04 51°22.636 2°52.875 19.4441 0.010307 0.057214 -1.731873
2008-05-28 07:20:09 51°22.654 2°52.878 19.4356 0.010307 0.057214 -1.731873
2008-05-28 07:20:14 51°22.673 2°52.881 19.4368 0.010307 0.057214 -1.731873
2008-05-28 07:20:19 51°22.692 2°52.884 19.4476 0.010307 0.057214 -1.731873
2008-05-28 07:20:24 51°22.71 2°52.887 19.4532 0.010307 0.057214 -1.731873
2008-05-28 07:20:29 51°22.729 2°52.89 19.4449 0.010307 0.057215 -1.731873
2008-05-28 07:20:34 51°22.748 2°52.893 19.4487 0.010307 0.057214 -1.731873
2008-05-28 07:20:39 51°22.766 2°52.896 19.4509 0.010307 0.057214 -1.731873
2008-05-28 07:20:44 51°22.785 2°52.898 19.4376 0.010307 0.057214 -1.731873
2008-05-28 07:20:49 51°22.804 2°52.901 19.4582 0.010307 0.057214 -1.731873
2008-05-28 07:20:54 51°22.822 2°52.903 19.456 0.010307 0.057214 -1.731873
2008-05-28 07:20:59 51°22.84 2°52.905 19.4529 0.010307 0.057215 -1.731873
2008-05-28 07:21:04 51°22.859 2°52.908 19.4478 0.010307 0.057215 -1.766697
2008-05-28 07:21:09 51°22.877 2°52.911 19.4464 0.010307 0.057216 -1.731873
2008-05-28 07:21:14 51°22.896 2°52.914 19.4582 0.010307 0.057216 -1.731873
2008-05-28 07:21:19 51°22.915 2°52.917 19.4557 0.010307 0.057216 -1.731873
2008-05-28 07:21:24 51°22.933 2°52.919 19.4544 0.010307 0.057217 -1.731873
2008-05-28 07:21:29 51°22.952 2°52.922 19.4568 0.010307 0.057217 -1.731873
2008-05-28 07:21:34 51°22.97 2°52.923 19.4461 0.010307 0.057217 -1.731873
2008-05-28 07:21:39 51°22.989 2°52.926 19.4623 0.010307 0.057217 -1.731873
2008-05-28 07:21:44 51°23.007 2°52.928 19.4601 0.010307 0.057217 -1.766697
2008-05-28 07:21:49 51°23.025 2°52.93 19.4493 0.010307 0.057217 -1.766697
2008-05-28 07:21:54 51°23.044 2°52.934 19.4525 0.010307 0.057218 -1.731873
2008-05-28 07:21:59 51°23.062 2°52.937 19.4517 0.010307 0.057218 -1.766697
2008-05-28 07:22:04 51°23.081 2°52.94 19.4495 0.010307 0.057219 -1.731873
2008-05-28 07:22:09 51°23.1 2°52.943 19.4621 0.010307 0.057219 -1.731873
2008-05-28 07:22:14 51°23.118 2°52.946 19.4682 0.010307 0.057219 -1.731873
2008-05-28 07:22:19 51°23.137 2°52.948 19.4574 0.010307 0.057219 -1.731873
2008-05-28 07:22:24 51°23.156 2°52.951 19.4665 0.010307 0.057219 -1.731873
2008-05-28 07:22:29 51°23.174 2°52.954 19.455 0.010307 0.057219 -1.731873
2008-05-28 07:22:34 51°23.193 2°52.956 19.4646 0.010307 0.057219 -1.731873
2008-05-28 07:22:39 51°23.212 2°52.958 19.4689 0.010307 0.05722 -1.731873
2008-05-28 07:22:44 51°23.23 2°52.96 19.458 0.010307 0.05722 -1.766697
2008-05-28 07:22:49 51°23.249 2°52.962 19.4612 0.010307 0.05722 -1.766697
2008-05-28 07:22:54 51°23.268 2°52.964 19.4727 0.010307 0.05722 -1.731873
2008-05-28 07:22:59 51°23.286 2°52.966 19.4613 0.010307 0.05722 -1.731873
2008-05-28 07:23:04 51°23.305 2°52.968 19.4638 0.010307 0.05722 -1.731873
2008-05-28 07:23:09 51°23.324 2°52.97 19.4714 0.010307 0.05722 -1.731873
2008-05-28 07:23:14 51°23.342 2°52.972 19.4694 0.010307 0.057221 -1.731873
2008-05-28 07:23:19 51°23.361 2°52.975 19.4649 0.010307 0.057221 -1.731873
2008-05-28 07:23:24 51°23.379 2°52.977 19.4702 0.010307 0.057221 -1.731873
2008-05-28 07:23:29 51°23.398 2°52.98 19.4629 0.010307 0.057221 -1.766697
2008-05-28 07:23:34 51°23.417 2°52.982 19.4625 0.010307 0.057222 -1.731873
2008-05-28 07:23:39 51°23.436 2°52.985 19.4717 0.010307 0.057222 -1.731873
2008-05-28 07:23:44 51°23.454 2°52.988 19.4663 0.010307 0.057222 -1.731873
2008-05-28 07:23:49 51°23.473 2°52.992 19.4641 0.010307 0.057222 -1.731873
2008-05-28 07:23:54 51°23.492 2°52.996 19.4666 0.010307 0.057222 -1.731873
2008-05-28 07:23:59 51°23.511 2°52.999 19.4798 0.010307 0.057222 -1.731873
2008-05-28 07:24:04 51°23.529 2°53.004 19.485 0.010307 0.057222 -1.731873
2008-05-28 07:24:09 51°23.548 2°53.008 19.4717 0.010307 0.057223 -1.731873
2008-05-28 07:24:14 51°23.566 2°53.011 19.4862 0.010307 0.057223 -1.731873
2008-05-28 07:24:20 51°23.589 2°53.015 19.474 0.010307 0.057223 -1.731873
2008-05-28 07:24:24 51°23.604 2°53.018 19.4814 0.010307 0.057224 -1.731873
2008-05-28 07:24:29 51°23.622 2°53.021 19.4803 0.010307 0.057224 -1.731873
2008-05-28 07:24:34 51°23.641 2°53.023 19.4854 0.010307 0.057224 -1.731873
2008-05-28 07:24:39 51°23.66 2°53.026 19.4825 0.010307 0.057224 -1.766697
2008-05-28 07:24:44 51°23.679 2°53.029 19.4864 0.010307 0.057224 -1.731873
2008-05-28 07:24:49 51°23.697 2°53.031 19.4844 0.010307 0.057224 -1.731873
2008-05-28 07:24:54 51°23.716 2°53.033 19.4855 0.010307 0.057224 -1.731873
2008-05-28 07:24:59 51°23.735 2°53.036 19.4856 0.010307 0.057224 -1.731873
2008-05-28 07:25:04 51°23.754 2°53.039 19.4885 0.010307 0.057225 -1.731873
2008-05-28 07:25:09 51°23.772 2°53.041 19.4918 0.010307 0.057224 -1.731873
2008-05-28 07:25:14 51°23.791 2°53.044 19.4821 0.010307 0.057225 -1.731873
2008-05-28 07:25:19 51°23.81 2°53.047 19.4909 0.010307 0.057225 -1.731873
2008-05-28 07:25:24 51°23.829 2°53.05 19.4892 0.010307 0.057225 -1.766697
2008-05-28 07:25:29 51°23.848 2°53.053 19.4942 0.010307 0.057225 -1.731873
2008-05-28 07:25:34 51°23.867 2°53.057 19.4926 0.010307 0.057225 -1.731873
2008-05-28 07:25:39 51°23.886 2°53.06 19.4886 0.010307 0.057225 -1.766697
2008-05-28 07:25:44 51°23.905 2°53.064 19.4981 0.010307 0.057226 -1.766697
2008-05-28 07:25:49 51°23.923 2°53.068 19.4941 0.010307 0.057226 -1.766697
2008-05-28 07:25:54 51°23.942 2°53.072 19.4992 0.010307 0.057226 -1.731873
2008-05-28 07:25:59 51°23.961 2°53.075 19.4985 0.010307 0.057226 -1.731873
2008-05-28 07:26:04 51°23.98 2°53.079 19.4942 0.010307 0.057226 -1.731873
2008-05-28 07:26:09 51°23.999 2°53.082 19.5014 0.010307 0.057226 -1.731873
2008-05-28 07:26:14 51°24.017 2°53.085 19.4906 0.010307 0.057227 -1.766697
2008-05-28 07:26:20 51°24.04 2°53.088 19.4903 0.010307 0.057227 -1.766697
2008-05-28 07:26:24 51°24.055 2°53.09 19.4924 0.010307 0.057227 -1.731873
2008-05-28 07:26:29 51°24.073 2°53.093 19.4934 0.010307 0.057227 -1.766697
2008-05-28 07:26:34 51°24.092 2°53.096 19.4976 0.010307 0.057227 -1.731873
2008-05-28 07:26:39 51°24.111 2°53.098 19.495 0.010307 0.057227 -1.731873
2008-05-28 07:26:44 51°24.13 2°53.1 19.5076 0.010307 0.057227 -1.731873
2008-05-28 07:26:49 51°24.149 2°53.103 19.5038 0.010307 0.057227 -1.731873
2008-05-28 07:26:54 51°24.168 2°53.105 19.5044 0.010307 0.057227 -1.731873
2008-05-28 07:26:59 51°24.186 2°53.107 19.4942 0.010307 0.057227 -1.731873
2008-05-28 07:27:04 51°24.204 2°53.11 19.4934 0.010307 0.057227 -1.766697
2008-05-28 07:27:09 51°24.223 2°53.113 19.5055 0.010307 0.057227 -1.731873
2008-05-28 07:27:14 51°24.242 2°53.116 19.5073 0.010307 0.057227 -1.731873
2008-05-28 07:27:19 51°24.26 2°53.119 19.4946 0.010307 0.057227 -1.731873
2008-05-28 07:27:24 51°24.279 2°53.122 19.5037 0.010307 0.057227 -1.731873
2008-05-28 07:27:29 51°24.297 2°53.125 19.5085 0.010307 0.057228 -1.731873
2008-05-28 07:27:34 51°24.316 2°53.128 19.5104 0.010307 0.057228 -1.731873
2008-05-28 07:27:39 51°24.334 2°53.131 19.514 0.010307 0.057228 -1.731873
2008-05-28 07:27:44 51°24.353 2°53.134 19.5116 0.010307 0.057228 -1.731873
2008-05-28 07:27:49 51°24.372 2°53.137 19.5156 0.010307 0.057228 -1.731873
2008-05-28 07:27:54 51°24.391 2°53.139 19.5125 0.010307 0.057228 -1.731873
2008-05-28 07:27:59 51°24.409 2°53.142 19.5024 0.010307 0.057228 -1.731873
2008-05-28 07:28:04 51°24.428 2°53.145 19.5113 0.010307 0.057228 -1.731873
2008-05-28 07:28:09 51°24.447 2°53.148 19.509 0.010307 0.057229 -1.731873
2008-05-28 07:28:14 51°24.465 2°53.151 19.5008 0.010307 0.057228 -1.766697
2008-05-28 07:28:19 51°24.484 2°53.154 19.5045 0.010307 0.057228 -1.766697
2008-05-28 07:28:24 51°24.503 2°53.158 19.5098 0.010307 0.057228 -1.731873
2008-05-28 07:28:29 51°24.521 2°53.16 19.5115 0.010307 0.057228 -1.731873
2008-05-28 07:28:34 51°24.54 2°53.163 19.5106 0.010307 0.057229 -1.731873
2008-05-28 07:28:39 51°24.559 2°53.166 19.5209 0.010307 0.057229 -1.731873
2008-05-28 07:28:44 51°24.577 2°53.168 19.5239 0.010307 0.057229 -1.766697
2008-05-28 07:28:49 51°24.596 2°53.17 19.5152 0.010307 0.057229 -1.766697
2008-05-28 07:28:54 51°24.614 2°53.171 19.5331 0.010307 0.057229 -1.731873
2008-05-28 07:29:00 51°24.636 2°53.172 19.5077 0.010307 0.057229 -1.731873
2008-05-28 07:29:04 51°24.651 2°53.174 19.5183 0.010307 0.057229 -1.731873
2008-05-28 07:29:09 51°24.669 2°53.175 19.5226 0.010307 0.057229 -1.731873
2008-05-28 07:29:14 51°24.688 2°53.177 19.5188 0.010307 0.057229 -1.731873
2008-05-28 07:29:19 51°24.706 2°53.178 19.5191 0.010307 0.057229 -1.731873
2008-05-28 07:29:24 51°24.724 2°53.179 19.5135 0.010307 0.057229 -1.731873
2008-05-28 07:29:29 51°24.742 2°53.181 19.5183 0.010307 0.057229 -1.731873
2008-05-28 07:29:34 51°24.761 2°53.183 19.5299 0.010307 0.057229 -1.731873
2008-05-28 07:29:39 51°24.779 2°53.184 19.5219 0.010307 0.057229 -1.731873
2008-05-28 07:29:44 51°24.797 2°53.186 19.5289 0.010307 0.057229 -1.731873
2008-05-28 07:29:49 51°24.815 2°53.187 19.5308 0.010307 0.057229 -1.731873
2008-05-28 07:29:54 51°24.834 2°53.189 19.5317 0.010307 0.057229 -1.731873
2008-05-28 07:29:59 51°24.852 2°53.191 19.5312 0.010307 0.057229 -1.731873
2008-05-28 07:30:04 51°24.87 2°53.192 19.526 0.010307 0.057229 -1.731873
2008-05-28 07:30:09 51°24.889 2°53.193 19.5284 0.010307 0.057229 -1.731873
2008-05-28 07:30:14 51°24.907 2°53.195 19.5345 0.010307 0.05723 -1.731873
2008-05-28 07:30:19 51°24.926 2°53.197 19.529 0.010307 0.05723 -1.731873
2008-05-28 07:30:24 51°24.944 2°53.199 19.532 0.010307 0.057229 -1.731873
2008-05-28 07:30:29 51°24.963 2°53.201 19.5226 0.010307 0.057229 -1.731873
2008-05-28 07:30:34 51°24.981 2°53.202 19.5237 0.010307 0.05723 -1.731873
2008-05-28 07:30:39 51°25 2°53.203 19.53 0.010307 0.05723 -1.731873
2008-05-28 07:30:44 51°25.018 2°53.203 19.533 0.010307 0.05723 -1.731873
2008-05-28 07:30:49 51°25.037 2°53.204 19.537 0.010307 0.05723 -1.731873
2008-05-28 07:30:54 51°25.055 2°53.204 19.5349 0.010307 0.05723 -1.766697
2008-05-28 07:31:00 51°25.077 2°53.204 19.5404 0.010307 0.05723 -1.731873
2008-05-28 07:31:04 51°25.092 2°53.205 19.5405 0.010307 0.05723 -1.766697
2008-05-28 07:31:09 51°25.11 2°53.205 19.5434 0.010307 0.057229 -1.731873
2008-05-28 07:31:14 51°25.128 2°53.205 19.5369 0.010307 0.057229 -1.731873
2008-05-28 07:31:19 51°25.147 2°53.206 19.5384 0.010307 0.057229 -1.731873
2008-05-28 07:31:24 51°25.165 2°53.207 19.5363 0.010307 0.05723 -1.731873
2008-05-28 07:31:29 51°25.183 2°53.208 19.5297 0.010307 0.057229 -1.731873
2008-05-28 07:31:34 51°25.202 2°53.209 19.5392 0.010307 0.057229 -1.731873
2008-05-28 07:31:39 51°25.22 2°53.211 19.5271 0.010307 0.05723 -1.731873
2008-05-28 07:31:44 51°25.238 2°53.213 19.5347 0.010307 0.057229 -1.731873
2008-05-28 07:31:49 51°25.257 2°53.215 19.5382 0.010307 0.057229 -1.731873
2008-05-28 07:31:54 51°25.275 2°53.218 19.5341 0.010307 0.05723 -1.731873
2008-05-28 07:31:59 51°25.293 2°53.221 19.5366 0.010307 0.05723 -1.731873
2008-05-28 07:32:04 51°25.312 2°53.224 19.5414 0.010307 0.05723 -1.731873
2008-05-28 07:32:09 51°25.33 2°53.227 19.5494 0.010307 0.05723 -1.766697
2008-05-28 07:32:14 51°25.348 2°53.229 19.5485 0.010307 0.05723 -1.731873
2008-05-28 07:32:19 51°25.367 2°53.232 19.5492 0.010307 0.05723 -1.731873
2008-05-28 07:32:24 51°25.385 2°53.235 19.5506 0.010307 0.05723 -1.731873
2008-05-28 07:32:29 51°25.404 2°53.237 19.5415 0.010307 0.05723 -1.731873
2008-05-28 07:32:34 51°25.422 2°53.24 19.5465 0.010307 0.057231 -1.731873
2008-05-28 07:32:39 51°25.441 2°53.243 19.5413 0.010307 0.057231 -1.731873
2008-05-28 07:32:44 51°25.459 2°53.245 19.5435 0.010307 0.057231 -1.731873
2008-05-28 07:32:49 51°25.478 2°53.248 19.5404 0.010307 0.057231 -1.731873
2008-05-28 07:32:54 51°25.497 2°53.251 19.5491 0.010307 0.05723 -1.731873
2008-05-28 07:33:00 51°25.519 2°53.254 19.5487 0.010307 0.057231 -1.731873
2008-05-28 07:33:04 51°25.533 2°53.256 19.5544 0.010307 0.05723 -1.766697
2008-05-28 07:33:09 51°25.552 2°53.259 19.5411 0.010307 0.057231 -1.731873
2008-05-28 07:33:14 51°25.571 2°53.262 19.5518 0.010307 0.057231 -1.731873
2008-05-28 07:33:19 51°25.589 2°53.264 19.5563 0.010307 0.057231 -1.731873
2008-05-28 07:33:24 51°25.608 2°53.267 19.5569 0.010307 0.057231 -1.731873
2008-05-28 07:33:29 51°25.626 2°53.269 19.5626 0.010307 0.057231 -1.731873
2008-05-28 07:33:34 51°25.645 2°53.271 19.5584 0.010307 0.057231 -1.731873
2008-05-28 07:33:39 51°25.663 2°53.272 19.5476 0.010307 0.057231 -1.731873
2008-05-28 07:33:44 51°25.682 2°53.274 19.5522 0.010307 0.057231 -1.731873
2008-05-28 07:33:49 51°25.7 2°53.275 19.5606 0.010307 0.057231 -1.731873
2008-05-28 07:33:54 51°25.719 2°53.277 19.5551 0.010307 0.057231 -1.731873
2008-05-28 07:33:59 51°25.737 2°53.279 19.5595 0.010307 0.057231 -1.731873
2008-05-28 07:34:04 51°25.755 2°53.28 19.5514 0.010307 0.057231 -1.766697
2008-05-28 07:34:09 51°25.774 2°53.281 19.5509 0.010307 0.057231 -1.731873
2008-05-28 07:34:14 51°25.792 2°53.283 19.5622 0.010307 0.057232 -1.731873
2008-05-28 07:34:19 51°25.811 2°53.286 19.5541 0.010307 0.057232 -1.731873
2008-05-28 07:34:24 51°25.829 2°53.287 19.5656 0.010307 0.057231 -1.766697
2008-05-28 07:34:29 51°25.848 2°53.291 19.5666 0.010307 0.057232 -1.731873
2008-05-28 07:34:34 51°25.867 2°53.293 19.5645 0.010307 0.057232 -1.731873
2008-05-28 07:34:39 51°25.885 2°53.296 19.5661 0.010307 0.057232 -1.731873
2008-05-28 07:34:44 51°25.904 2°53.299 19.5563 0.010307 0.057231 -1.731873
2008-05-28 07:34:49 51°25.923 2°53.303 19.5604 0.010307 0.057231 -1.731873
2008-05-28 07:34:54 51°25.942 2°53.305 19.5687 0.010307 0.057231 -1.731873
2008-05-28 07:34:59 51°25.961 2°53.309 19.5764 0.010307 0.057231 -1.731873
2008-05-28 07:35:04 51°25.979 2°53.311 19.5733 0.010307 0.057232 -1.731873
2008-05-28 07:35:09 51°25.998 2°53.314 19.577 0.010307 0.057232 -1.731873
2008-05-28 07:35:15 51°26.021 2°53.317 19.5651 0.010307 0.057231 -1.731873
2008-05-28 07:35:19 51°26.035 2°53.318 19.563 0.010307 0.057231 -1.731873
2008-05-28 07:35:24 51°26.054 2°53.32 19.5776 0.010307 0.057232 -1.731873
2008-05-28 07:35:29 51°26.073 2°53.322 19.5675 0.010307 0.057232 -1.731873
2008-05-28 07:35:34 51°26.091 2°53.324 19.5652 0.010307 0.057232 -1.731873
2008-05-28 07:35:40 51°26.114 2°53.327 19.5684 0.010307 0.057232 -1.731873
2008-05-28 07:35:44 51°26.129 2°53.329 19.5652 0.010307 0.057232 -1.766697
2008-05-28 07:35:49 51°26.147 2°53.331 19.5845 0.010307 0.057232 -1.766697
2008-05-28 07:35:54 51°26.166 2°53.333 19.5678 0.010307 0.057232 -1.731873
2008-05-28 07:35:59 51°26.184 2°53.334 19.5684 0.010307 0.057232 -1.766697
2008-05-28 07:36:04 51°26.203 2°53.335 19.5661 0.010307 0.057233 -1.731873
2008-05-28 07:36:09 51°26.222 2°53.336 19.5673 0.010307 0.057233 -1.731873
2008-05-28 07:36:14 51°26.241 2°53.338 19.5776 0.010307 0.057233 -1.731873
2008-05-28 07:36:19 51°26.259 2°53.34 19.5795 0.010307 0.057233 -1.731873
2008-05-28 07:36:24 51°26.278 2°53.343 19.5742 0.010307 0.057233 -1.731873
2008-05-28 07:36:29 51°26.296 2°53.344 19.5798 0.010307 0.057233 -1.731873
2008-05-28 07:36:34 51°26.315 2°53.346 19.5764 0.010307 0.057233 -1.731873
2008-05-28 07:36:39 51°26.334 2°53.348 19.5815 0.010307 0.057234 -1.731873
2008-05-28 07:36:44 51°26.352 2°53.349 19.5839 0.010307 0.057234 -1.731873
2008-05-28 07:36:49 51°26.371 2°53.351 19.5914 0.010307 0.057234 -1.731873
2008-05-28 07:36:54 51°26.389 2°53.353 19.5828 0.010307 0.057234 -1.766697
2008-05-28 07:36:59 51°26.407 2°53.356 19.5797 0.010307 0.057234 -1.731873
2008-05-28 07:37:04 51°26.425 2°53.359 19.5878 0.010307 0.057235 -1.766697
2008-05-28 07:37:09 51°26.444 2°53.361 19.5804 0.010307 0.057235 -1.731873
2008-05-28 07:37:14 51°26.462 2°53.364 19.5822 0.010307 0.057236 -1.731873
2008-05-28 07:37:19 51°26.481 2°53.366 19.5906 0.010307 0.057236 -1.731873
2008-05-28 07:37:24 51°26.499 2°53.368 19.5942 0.010307 0.057236 -1.731873
2008-05-28 07:37:29 51°26.518 2°53.37 19.588 0.010307 0.057236 -1.731873
2008-05-28 07:37:34 51°26.537 2°53.372 19.5825 0.010307 0.057236 -1.731873
2008-05-28 07:37:40 51°26.559 2°53.375 19.5908 0.010307 0.057237 -1.731873
2008-05-28 07:37:44 51°26.574 2°53.377 19.5975 0.010307 0.057237 -1.731873
2008-05-28 07:37:49 51°26.592 2°53.379 19.5866 0.010307 0.057237 -1.731873
2008-05-28 07:37:54 51°26.61 2°53.382 19.6 0.010307 0.057237 -1.731873
2008-05-28 07:37:59 51°26.629 2°53.384 19.5884 0.010307 0.057238 -1.731873
2008-05-28 07:38:04 51°26.647 2°53.387 19.5981 0.010307 0.057238 -1.731873
2008-05-28 07:38:09 51°26.666 2°53.39 19.5845 0.010307 0.057238 -1.731873
2008-05-28 07:38:14 51°26.684 2°53.392 19.5984 0.010307 0.057239 -1.731873
2008-05-28 07:38:19 51°26.703 2°53.395 19.602 0.010307 0.057239 -1.731873
2008-05-28 07:38:24 51°26.721 2°53.397 19.5907 0.010307 0.057239 -1.731873
2008-05-28 07:38:29 51°26.739 2°53.4 19.5955 0.010307 0.057239 -1.731873
2008-05-28 07:38:34 51°26.758 2°53.403 19.5873 0.010307 0.057239 -1.731873
2008-05-28 07:38:39 51°26.777 2°53.406 19.5983 0.010307 0.057239 -1.731873
2008-05-28 07:38:44 51°26.795 2°53.408 19.5957 0.010307 0.057239 -1.731873
2008-05-28 07:38:49 51°26.813 2°53.411 19.5885 0.010307 0.057239 -1.731873
2008-05-28 07:38:54 51°26.832 2°53.413 19.602 0.010307 0.057239 -1.731873
2008-05-28 07:38:59 51°26.851 2°53.415 19.5954 0.010307 0.05724 -1.731873
2008-05-28 07:39:04 51°26.869 2°53.417 19.6058 0.010307 0.05724 -1.731873
2008-05-28 07:39:09 51°26.888 2°53.419 19.5945 0.010307 0.05724 -1.731873
2008-05-28 07:39:14 51°26.906 2°53.42 19.601 0.010307 0.057241 -1.731873
2008-05-28 07:39:19 51°26.925 2°53.422 19.5976 0.010307 0.057241 -1.731873
2008-05-28 07:39:24 51°26.943 2°53.423 19.6002 0.010307 0.057241 -1.731873
2008-05-28 07:39:29 51°26.962 2°53.426 19.5934 0.010307 0.057241 -1.731873
2008-05-28 07:39:34 51°26.981 2°53.427 19.61 0.010307 0.057241 -1.766697
2008-05-28 07:39:40 51°27.002 2°53.429 19.6064 0.010307 0.057241 -1.766697
2008-05-28 07:39:44 51°27.017 2°53.43 19.6092 0.010307 0.057241 -1.731873
2008-05-28 07:39:49 51°27.036 2°53.433 19.6114 0.010307 0.057241 -1.731873
2008-05-28 07:39:55 51°27.058 2°53.435 19.6116 0.010307 0.057241 -1.731873
2008-05-28 07:39:59 51°27.072 2°53.437 19.6087 0.010307 0.057241 -1.766697
2008-05-28 07:40:04 51°27.091 2°53.439 19.6122 0.010307 0.057241 -1.731873
2008-05-28 07:40:09 51°27.109 2°53.442 19.6003 0.010307 0.057242 -1.766697
2008-05-28 07:40:14 51°27.128 2°53.445 19.5984 0.010307 0.057242 -1.731873
2008-05-28 07:40:20 51°27.15 2°53.448 19.6231 0.010307 0.057242 -1.731873
2008-05-28 07:40:24 51°27.165 2°53.451 19.6144 0.010307 0.057242 -1.731873
2008-05-28 07:40:29 51°27.183 2°53.453 19.6114 0.010307 0.057243 -1.731873
2008-05-28 07:40:34 51°27.201 2°53.456 19.6186 0.010307 0.057243 -1.731873
2008-05-28 07:40:39 51°27.22 2°53.459 19.6086 0.010307 0.057243 -1.731873
2008-05-28 07:40:44 51°27.239 2°53.461 19.6045 0.010307 0.057243 -1.731873
2008-05-28 07:40:49 51°27.257 2°53.464 19.6186 0.010307 0.057243 -1.731873
2008-05-28 07:40:54 51°27.276 2°53.467 19.6098 0.010307 0.057243 -1.731873
2008-05-28 07:40:59 51°27.294 2°53.47 19.6245 0.010307 0.057244 -1.766697
2008-05-28 07:41:04 51°27.313 2°53.472 19.6175 0.010307 0.057244 -1.766697
2008-05-28 07:41:09 51°27.331 2°53.475 19.6209 0.010307 0.057244 -1.731873
2008-05-28 07:41:14 51°27.35 2°53.477 19.6207 0.010307 0.057243 -1.731873
2008-05-28 07:41:19 51°27.369 2°53.479 19.6184 0.010307 0.057243 -1.731873
2008-05-28 07:41:24 51°27.387 2°53.481 19.6127 0.010307 0.057244 -1.731873
2008-05-28 07:41:29 51°27.406 2°53.483 19.624 0.010307 0.057244 -1.766697
2008-05-28 07:41:34 51°27.425 2°53.486 19.6188 0.010307 0.057244 -1.731873
2008-05-28 07:41:39 51°27.443 2°53.488 19.622 0.010307 0.057244 -1.731873
2008-05-28 07:41:44 51°27.462 2°53.49 19.6129 0.010307 0.057244 -1.766697
2008-05-28 07:41:49 51°27.481 2°53.493 19.6114 0.010307 0.057244 -1.766697
2008-05-28 07:41:55 51°27.503 2°53.496 19.6163 0.010307 0.057244 -1.766697
2008-05-28 07:41:59 51°27.518 2°53.499 19.6245 0.010307 0.057244 -1.766697
2008-05-28 07:42:04 51°27.537 2°53.501 19.6294 0.010307 0.057244 -1.731873
2008-05-28 07:42:09 51°27.556 2°53.504 19.6284 0.010307 0.057244 -1.731873
2008-05-28 07:42:14 51°27.574 2°53.506 19.6276 0.010307 0.057244 -1.731873
2008-05-28 07:42:20 51°27.597 2°53.509 19.6236 0.010307 0.057244 -1.731873
2008-05-28 07:42:24 51°27.612 2°53.51 19.6236 0.010307 0.057244 -1.731873
2008-05-28 07:42:29 51°27.63 2°53.512 19.6336 0.010307 0.057244 -1.731873
2008-05-28 07:42:34 51°27.649 2°53.514 19.6298 0.010307 0.057243 -1.731873
2008-05-28 07:42:39 51°27.668 2°53.516 19.6308 0.010307 0.057244 -1.731873
2008-05-28 07:42:44 51°27.687 2°53.517 19.6263 0.010307 0.057244 -1.731873
2008-05-28 07:42:49 51°27.705 2°53.519 19.6277 0.010307 0.057244 -1.731873
2008-05-28 07:42:54 51°27.724 2°53.522 19.6328 0.010307 0.057244 -1.731873
2008-05-28 07:42:59 51°27.742 2°53.523 19.6258 0.010307 0.057244 -1.766697
2008-05-28 07:43:04 51°27.761 2°53.526 19.6369 0.010307 0.057244 -1.731873
2008-05-28 07:43:09 51°27.779 2°53.528 19.6282 0.010307 0.057244 -1.731873
2008-05-28 07:43:14 51°27.798 2°53.53 19.6389 0.010307 0.057244 -1.731873
2008-05-28 07:43:19 51°27.816 2°53.532 19.6313 0.010307 0.057244 -1.731873
2008-05-28 07:43:24 51°27.835 2°53.534 19.6247 0.010307 0.057244 -1.731873
2008-05-28 07:43:29 51°27.853 2°53.537 19.6384 0.010307 0.057244 -1.766697
2008-05-28 07:43:34 51°27.872 2°53.539 19.637 0.010307 0.057244 -1.766697
2008-05-28 07:43:39 51°27.89 2°53.542 19.6494 0.010307 0.057244 -1.766697
2008-05-28 07:43:44 51°27.909 2°53.544 19.6445 0.010307 0.057244 -1.731873
2008-05-28 07:43:49 51°27.927 2°53.547 19.6382 0.010307 0.057244 -1.731873
2008-05-28 07:43:54 51°27.945 2°53.549 19.6321 0.010307 0.057244 -1.697049
2008-05-28 07:43:59 51°27.963 2°53.551 19.6441 0.010307 0.057244 -1.731873
2008-05-28 07:44:04 51°27.981 2°53.553 19.6336 0.010307 0.057244 -1.766697
2008-05-28 07:44:09 51°28 2°53.556 19.6599 0.010307 0.057244 -1.731873
2008-05-28 07:44:14 51°28.018 2°53.559 19.6383 0.010307 0.057244 -1.731873
2008-05-28 07:44:20 51°28.04 2°53.562 19.6483 0.010307 0.057244 -1.731873
2008-05-28 07:44:24 51°28.055 2°53.564 19.64 0.010307 0.057245 -1.731873
2008-05-28 07:44:29 51°28.074 2°53.566 19.6429 0.010307 0.057245 -1.731873
2008-05-28 07:44:34 51°28.092 2°53.569 19.64 0.010307 0.057245 -1.766697
2008-05-28 07:44:39 51°28.111 2°53.573 19.6418 0.010307 0.057245 -1.731873
2008-05-28 07:44:44 51°28.13 2°53.576 19.6425 0.010307 0.057245 -1.766697
2008-05-28 07:44:49 51°28.148 2°53.58 19.6468 0.010307 0.057245 -1.766697
2008-05-28 07:44:54 51°28.167 2°53.583 19.6469 0.010307 0.057245 -1.731873
2008-05-28 07:44:59 51°28.185 2°53.586 19.6469 0.010307 0.057245 -1.731873
2008-05-28 07:45:04 51°28.204 2°53.59 19.6553 0.010307 0.057246 -1.731873
2008-05-28 07:45:09 51°28.223 2°53.594 19.6588 0.010307 0.057246 -1.731873
2008-05-28 07:45:14 51°28.241 2°53.597 19.647 0.010307 0.057246 -1.766697
2008-05-28 07:45:19 51°28.259 2°53.601 19.6495 0.010307 0.057246 -1.766697
2008-05-28 07:45:24 51°28.278 2°53.604 19.6479 0.010307 0.057246 -1.731873
2008-05-28 07:45:29 51°28.296 2°53.608 19.6612 0.010307 0.057246 -1.731873
2008-05-28 07:45:34 51°28.315 2°53.61 19.6554 0.010307 0.057247 -1.731873
2008-05-28 07:45:39 51°28.334 2°53.614 19.6588 0.010307 0.057247 -1.731873
2008-05-28 07:45:44 51°28.352 2°53.617 19.6597 0.010307 0.057247 -1.766697
2008-05-28 07:45:49 51°28.371 2°53.619 19.6488 0.010307 0.057247 -1.766697
2008-05-28 07:45:54 51°28.389 2°53.622 19.6626 0.010307 0.057248 -1.731873
2008-05-28 07:45:59 51°28.408 2°53.624 19.6491 0.010307 0.057248 -1.766697
2008-05-28 07:46:04 51°28.427 2°53.626 19.6523 0.010307 0.057248 -1.731873
2008-05-28 07:46:09 51°28.445 2°53.629 19.6521 0.010307 0.057248 -1.731873
2008-05-28 07:46:14 51°28.464 2°53.631 19.6596 0.010307 0.057248 -1.731873
2008-05-28 07:46:19 51°28.482 2°53.633 19.6602 0.010307 0.057248 -1.731873
2008-05-28 07:46:24 51°28.501 2°53.636 19.6591 0.010307 0.057249 -1.766697
2008-05-28 07:46:29 51°28.52 2°53.639 19.6677 0.010307 0.057249 -1.766697
2008-05-28 07:46:35 51°28.542 2°53.642 19.6674 0.010307 0.057249 -1.731873
2008-05-28 07:46:39 51°28.557 2°53.644 19.6743 0.010307 0.057249 -1.731873
2008-05-28 07:46:44 51°28.575 2°53.647 19.6582 0.010307 0.057249 -1.731873
2008-05-28 07:46:49 51°28.593 2°53.649 19.6582 0.010307 0.057249 -1.731873
2008-05-28 07:46:54 51°28.611 2°53.651 19.6548 0.010307 0.057249 -1.731873
2008-05-28 07:46:59 51°28.63 2°53.653 19.6537 0.010307 0.057249 -1.766697
2008-05-28 07:47:04 51°28.648 2°53.655 19.6618 0.010307 0.057249 -1.731873
2008-05-28 07:47:09 51°28.667 2°53.656 19.6666 0.010307 0.057249 -1.731873
2008-05-28 07:47:14 51°28.685 2°53.658 19.6677 0.010307 0.057249 -1.731873
2008-05-28 07:47:19 51°28.703 2°53.66 19.6666 0.010307 0.057249 -1.731873
2008-05-28 07:47:24 51°28.721 2°53.662 19.6779 0.010307 0.057249 -1.731873
2008-05-28 07:47:29 51°28.74 2°53.664 19.6557 0.010307 0.05725 -1.731873
2008-05-28 07:47:34 51°28.758 2°53.666 19.663 0.010307 0.057249 -1.731873
2008-05-28 07:47:39 51°28.776 2°53.668 19.6699 0.010307 0.05725 -1.731873
2008-05-28 07:47:44 51°28.795 2°53.669 19.6657 0.010307 0.057249 -1.731873
2008-05-28 07:47:49 51°28.813 2°53.67 19.6621 0.010307 0.057249 -1.731873
2008-05-28 07:47:54 51°28.832 2°53.672 19.6773 0.010307 0.05725 -1.731873
2008-05-28 07:47:59 51°28.85 2°53.675 19.6755 0.010307 0.05725 -1.731873
2008-05-28 07:48:04 51°28.869 2°53.676 19.6784 0.010307 0.057251 -1.731873
2008-05-28 07:48:09 51°28.887 2°53.678 19.6857 0.010307 0.057251 -1.731873
2008-05-28 07:48:14 51°28.906 2°53.679 19.665 0.010307 0.057251 -1.766697
2008-05-28 07:48:19 51°28.924 2°53.681 19.666 0.010307 0.057251 -1.766697
2008-05-28 07:48:24 51°28.942 2°53.682 19.6711 0.010307 0.057251 -1.731873
2008-05-28 07:48:29 51°28.96 2°53.683 19.6779 0.010307 0.057251 -1.731873
2008-05-28 07:48:34 51°28.979 2°53.685 19.6853 0.010307 0.057252 -1.731873
2008-05-28 07:48:39 51°28.997 2°53.686 19.6721 0.010307 0.057252 -1.731873
2008-05-28 07:48:44 51°29.015 2°53.688 19.6751 0.010307 0.057252 -1.766697
2008-05-28 07:48:49 51°29.034 2°53.689 19.6819 0.010307 0.057252 -1.766697
2008-05-28 07:48:54 51°29.052 2°53.691 19.6724 0.010307 0.057252 -1.766697
2008-05-28 07:49:00 51°29.074 2°53.693 19.6776 0.010307 0.057252 -1.766697
2008-05-28 07:49:04 51°29.089 2°53.695 19.6747 0.010307 0.057253 -1.766697
2008-05-28 07:49:09 51°29.108 2°53.696 19.6927 0.010307 0.057253 -1.766697
2008-05-28 07:49:14 51°29.126 2°53.698 19.6955 0.010307 0.057253 -1.731873
2008-05-28 07:49:19 51°29.145 2°53.699 19.688 0.010307 0.057253 -1.731873
2008-05-28 07:49:24 51°29.163 2°53.701 19.6786 0.010307 0.057253 -1.731873
2008-05-28 07:49:29 51°29.182 2°53.702 19.6853 0.010307 0.057253 -1.766697
2008-05-28 07:49:34 51°29.2 2°53.704 19.6882 0.010307 0.057253 -1.766697
2008-05-28 07:49:39 51°29.219 2°53.706 19.6864 0.010307 0.057254 -1.766697
2008-05-28 07:49:44 51°29.237 2°53.708 19.6816 0.010307 0.057254 -1.731873
2008-05-28 07:49:49 51°29.256 2°53.71 19.6872 0.010307 0.057254 -1.731873
2008-05-28 07:49:54 51°29.274 2°53.712 19.6859 0.010307 0.057254 -1.731873
2008-05-28 07:49:59 51°29.293 2°53.714 19.6922 0.010307 0.057254 -1.731873
2008-05-28 07:50:04 51°29.311 2°53.716 19.6912 0.010307 0.057254 -1.731873
2008-05-28 07:50:09 51°29.33 2°53.718 19.6991 0.010307 0.057254 -1.731873
2008-05-28 07:50:14 51°29.348 2°53.72 19.7091 0.010307 0.057254 -1.766697
2008-05-28 07:50:19 51°29.367 2°53.721 19.6835 0.010307 0.057254 -1.766697
2008-05-28 07:50:24 51°29.386 2°53.722 19.6972 0.010307 0.057254 -1.731873
2008-05-28 07:50:29 51°29.404 2°53.724 19.6999 0.010307 0.057254 -1.731873
2008-05-28 07:50:34 51°29.423 2°53.725 19.702 0.010307 0.057255 -1.766697
2008-05-28 07:50:39 51°29.441 2°53.727 19.6853 0.010307 0.057255 -1.766697
2008-05-28 07:50:44 51°29.459 2°53.729 19.6959 0.010307 0.057255 -1.731873
2008-05-28 07:50:49 51°29.478 2°53.731 19.6826 0.010307 0.057255 -1.731873
2008-05-28 07:50:54 51°29.496 2°53.732 19.6965 0.010307 0.057255 -1.731873
2008-05-28 07:51:00 51°29.518 2°53.736 19.7076 0.010307 0.057256 -1.731873
2008-05-28 07:51:04 51°29.533 2°53.738 19.7051 0.010307 0.057256 -1.731873